Today

Time Wind Dr Wind Spd
mph
Wind Gust
mph
Hum In
%
Humid
%
TempI
F
Temp
F
Raw Bar
in
Tot Rain
in
UV Solar
W/sqm
DailyRain
in
HourRain
in
24HrRain
in
RainRate
in
06/21/18 12:01:21 AM 234 0.0 1.0 50 77 80.9 66.1 29.958 2.77 0.0 0 0.00 0.00 0.00 0.00
06/21/18 12:02:32 AM 234 0.0 1.0 50 78 80.8 66.1 29.956 2.77 0.0 0 0.00 0.00 0.00 0.00
06/21/18 12:03:24 AM 234 0.0 1.0 50 78 80.8 66.1 29.956 2.77 0.0 0 0.00 0.00 0.00 0.00
06/21/18 12:04:17 AM 234 0.0 1.0 50 78 80.7 66.1 29.958 2.77 0.0 0 0.00 0.00 0.00 0.00
06/21/18 12:05:29 AM 234 0.0 1.0 50 78 80.8 66.0 29.955 2.77 0.0 0 0.00 0.00 0.00 0.00
06/21/18 12:06:22 AM 234 0.0 1.0 50 77 80.7 66.0 29.957 2.77 0.0 0 0.00 0.00 0.00 0.00
06/21/18 12:07:34 AM 234 1.0 1.0 50 77 80.7 65.9 29.959 2.77 0.0 0 0.00 0.00 0.00 0.00
06/21/18 12:08:24 AM 234 1.0 1.0 50 76 80.7 65.8 29.958 2.77 0.0 0 0.00 0.00 0.00 0.00
06/21/18 12:09:35 AM 234 0.0 2.0 50 77 80.8 65.7 29.957 2.77 0.0 0 0.00 0.00 0.00 0.00
06/21/18 12:10:28 AM 234 0.0 2.0 50 76 80.7 65.5 29.956 2.77 0.0 0 0.00 0.00 0.00 0.00
06/21/18 12:11:22 AM 234 0.0 2.0 50 76 80.7 65.4 29.958 2.77 0.0 0 0.00 0.00 0.00 0.00
06/21/18 12:12:36 AM 234 0.0 2.0 50 77 80.7 65.2 29.956 2.77 0.0 0 0.00 0.00 0.00 0.00
06/21/18 12:13:23 AM 234 1.0 2.0 50 77 80.7 65.1 29.958 2.77 0.0 0 0.00 0.00 0.00 0.00
06/21/18 12:14:38 AM 234 0.0 2.0 50 77 80.7 65.1 29.958 2.77 0.0 0 0.00 0.00 0.00 0.00
06/21/18 12:15:28 AM 234 0.0 2.0 50 78 80.7 65.1 29.958 2.77 0.0 0 0.00 0.00 0.00 0.00
06/21/18 12:16:21 AM 234 0.0 2.0 50 78 80.7 65.0 29.957 2.77 0.0 0 0.00 0.00 0.00 0.00
06/21/18 12:17:33 AM 234 0.0 2.0 50 78 80.7 65.1 29.956 2.77 0.0 0 0.00 0.00 0.00 0.00
06/21/18 12:18:26 AM 234 0.0 2.0 50 78 80.7 65.1 29.957 2.77 0.0 0 0.00 0.00 0.00 0.00
06/21/18 12:19:34 AM 234 0.0 2.0 50 78 80.7 65.1 29.958 2.77 0.0 0 0.00 0.00 0.00 0.00
06/21/18 12:20:27 AM 234 0.0 2.0 50 78 80.7 65.1 29.955 2.77 0.0 0 0.00 0.00 0.00 0.00
06/21/18 12:21:21 AM 234 0.0 2.0 50 78 80.7 65.1 29.957 2.77 0.0 0 0.00 0.00 0.00 0.00
06/21/18 12:22:32 AM 234 0.0 2.0 50 78 80.7 65.0 29.958 2.77 0.0 0 0.00 0.00 0.00 0.00
06/21/18 12:23:26 AM 234 0.0 2.0 50 78 80.6 64.9 29.957 2.77 0.0 0 0.00 0.00 0.00 0.00
06/21/18 12:24:34 AM 234 0.0 2.0 50 78 80.6 64.8 29.957 2.77 0.0 0 0.00 0.00 0.00 0.00
06/21/18 12:25:24 AM 234 0.0 2.0 50 79 80.7 64.8 29.956 2.77 0.0 0 0.00 0.00 0.00 0.00
06/21/18 12:26:36 AM 234 0.0 2.0 50 79 80.6 64.8 29.956 2.77 0.0 0 0.00 0.00 0.00 0.00
06/21/18 12:27:29 AM 234 0.0 2.0 50 79 80.6 64.7 29.957 2.77 0.0 0 0.00 0.00 0.00 0.00
06/21/18 12:28:22 AM 202 1.0 2.0 50 79 80.6 64.7 29.956 2.77 0.0 0 0.00 0.00 0.00 0.00
06/21/18 12:29:31 AM 202 1.0 2.0 50 80 80.6 64.7 29.958 2.77 0.0 0 0.00 0.00 0.00 0.00
06/21/18 12:30:21 AM 202 1.0 2.0 50 79 80.6 64.7 29.957 2.77 0.0 0 0.00 0.00 0.00 0.00
06/21/18 12:31:36 AM 202 0.0 2.0 50 80 80.6 64.7 29.957 2.77 0.0 0 0.00 0.00 0.00 0.00
06/21/18 12:32:29 AM 202 0.0 2.0 50 80 80.6 64.7 29.957 2.77 0.0 0 0.00 0.00 0.00 0.00
06/21/18 12:33:19 AM 202 0.0 2.0 50 79 80.5 64.6 29.955 2.77 0.0 0 0.00 0.00 0.00 0.00
06/21/18 12:34:34 AM 200 0.0 2.0 50 79 80.6 64.5 29.955 2.77 0.0 0 0.00 0.00 0.00 0.00
06/21/18 12:35:21 AM 200 0.0 2.0 50 80 80.6 64.5 29.955 2.77 0.0 0 0.00 0.00 0.00 0.00
06/21/18 12:36:36 AM 200 0.0 2.0 50 80 80.6 64.5 29.954 2.77 0.0 0 0.00 0.00 0.00 0.00
06/21/18 12:37:29 AM 200 0.0 2.0 50 79 80.6 64.4 29.954 2.77 0.0 0 0.00 0.00 0.00 0.00
06/21/18 12:38:19 AM 200 1.0 2.0 50 79 80.6 64.3 29.955 2.77 0.0 0 0.00 0.00 0.00 0.00
06/21/18 12:39:31 AM 200 0.0 2.0 50 80 80.6 64.2 29.953 2.77 0.0 0 0.00 0.00 0.00 0.00
06/21/18 12:40:21 AM 200 1.0 2.0 50 80 80.5 64.1 29.953 2.77 0.0 0 0.00 0.00 0.00 0.00
06/21/18 12:41:33 AM 198 1.0 2.0 50 80 80.5 64.1 29.954 2.77 0.0 0 0.00 0.00 0.00 0.00
06/21/18 12:42:26 AM 198 0.0 2.0 50 81 80.5 64.1 29.952 2.77 0.0 0 0.00 0.00 0.00 0.00
06/21/18 12:43:19 AM 198 1.0 2.0 50 80 80.5 64.0 29.952 2.77 0.0 0 0.00 0.00 0.00 0.00
06/21/18 12:44:31 AM 198 0.0 2.0 50 80 80.5 64.0 29.953 2.77 0.0 0 0.00 0.00 0.00 0.00
06/21/18 12:45:24 AM 198 0.0 2.0 50 81 80.5 64.0 29.952 2.77 0.0 0 0.00 0.00 0.00 0.00
06/21/18 12:46:32 AM 198 1.0 2.0 50 81 80.5 63.9 29.950 2.77 0.0 0 0.00 0.00 0.00 0.00
06/21/18 12:47:23 AM 198 0.0 2.0 50 81 80.5 63.9 29.953 2.77 0.0 0 0.00 0.00 0.00 0.00
06/21/18 12:48:16 AM 198 1.0 2.0 50 81 80.5 63.9 29.951 2.77 0.0 0 0.00 0.00 0.00 0.00
06/21/18 12:49:28 AM 198 0.0 2.0 50 81 80.5 63.9 29.952 2.77 0.0 0 0.00 0.00 0.00 0.00
06/21/18 12:50:21 AM 198 2.0 2.0 50 81 80.5 63.9 29.950 2.77 0.0 0 0.00 0.00 0.00 0.00
06/21/18 12:51:30 AM 198 1.0 2.0 50 81 80.5 63.9 29.950 2.77 0.0 0 0.00 0.00 0.00 0.00
06/21/18 12:52:20 AM 198 2.0 2.0 50 81 80.5 63.9 29.952 2.77 0.0 0 0.00 0.00 0.00 0.00
06/21/18 12:53:32 AM 198 1.0 2.0 50 81 80.5 63.9 29.950 2.77 0.0 0 0.00 0.00 0.00 0.00
06/21/18 12:54:25 AM 198 1.0 2.0 50 81 80.5 63.8 29.951 2.77 0.0 0 0.00 0.00 0.00 0.00
06/21/18 12:55:18 AM 198 2.0 2.0 50 81 80.5 63.8 29.949 2.77 0.0 0 0.00 0.00 0.00 0.00
06/21/18 12:56:27 AM 198 2.0 3.0 50 81 80.5 63.8 29.949 2.77 0.0 0 0.00 0.00 0.00 0.00
06/21/18 12:57:20 AM 198 1.0 3.0 50 81 80.4 63.9 29.950 2.77 0.0 0 0.00 0.00 0.00 0.00
06/21/18 12:58:32 AM 198 0.0 3.0 50 81 80.4 63.9 29.950 2.77 0.0 0 0.00 0.00 0.00 0.00
06/21/18 12:59:25 AM 198 0.0 3.0 50 81 80.4 63.9 29.948 2.77 0.0 0 0.00 0.00 0.00 0.00
06/21/18 1:00:15 AM 198 0.0 3.0 50 81 80.4 63.9 29.948 2.77 0.0 0 0.00 0.00 0.00 0.00
06/21/18 1:01:27 AM 198 0.0 3.0 50 81 80.4 63.9 29.946 2.77 0.0 0 0.00 0.00 0.00 0.00
06/21/18 1:02:36 AM 198 0.0 3.0 50 81 80.4 63.8 29.946 2.77 0.0 0 0.00 0.00 0.00 0.00
06/21/18 1:03:29 AM 198 0.0 3.0 50 81 80.5 63.8 29.946 2.77 0.0 0 0.00 0.00 0.00 0.00
06/21/18 1:04:19 AM 198 0.0 3.0 50 81 80.4 63.8 29.946 2.77 0.0 0 0.00 0.00 0.00 0.00
06/21/18 1:05:34 AM 198 0.0 3.0 50 81 80.4 63.8 29.944 2.77 0.0 0 0.00 0.00 0.00 0.00
06/21/18 1:06:27 AM 198 0.0 3.0 50 81 80.4 63.8 29.946 2.77 0.0 0 0.00 0.00 0.00 0.00
06/21/18 1:07:32 AM 198 0.0 3.0 50 81 80.4 63.8 29.944 2.77 0.0 0 0.00 0.00 0.00 0.00
06/21/18 1:08:26 AM 198 0.0 3.0 50 81 80.4 63.7 29.944 2.77 0.0 0 0.00 0.00 0.00 0.00
06/21/18 1:09:19 AM 198 0.0 3.0 50 81 80.4 63.6 29.946 2.77 0.0 0 0.00 0.00 0.00 0.00
06/21/18 1:10:31 AM 198 0.0 3.0 50 81 80.4 63.6 29.944 2.77 0.0 0 0.00 0.00 0.00 0.00
06/21/18 1:11:24 AM 168 0.0 3.0 50 81 80.3 63.6 29.944 2.77 0.0 0 0.00 0.00 0.00 0.00
06/21/18 1:12:17 AM 164 0.0 3.0 50 81 80.3 63.6 29.944 2.77 0.0 0 0.00 0.00 0.00 0.00
06/21/18 1:13:26 AM 152 2.0 3.0 50 81 80.3 63.6 29.944 2.77 0.0 0 0.00 0.00 0.00 0.00
06/21/18 1:14:19 AM 143 2.0 3.0 50 81 80.3 63.6 29.944 2.77 0.0 0 0.00 0.00 0.00 0.00
06/21/18 1:15:31 AM 128 1.0 3.0 50 81 80.3 63.6 29.946 2.77 0.0 0 0.00 0.00 0.00 0.00
06/21/18 1:16:24 AM 128 0.0 3.0 50 81 80.3 63.6 29.944 2.77 0.0 0 0.00 0.00 0.00 0.00
06/21/18 1:17:18 AM 128 1.0 3.0 50 81 80.3 63.6 29.944 2.77 0.0 0 0.00 0.00 0.00 0.00
06/21/18 1:18:26 AM 128 0.0 3.0 50 82 80.3 63.6 29.946 2.77 0.0 0 0.00 0.00 0.00 0.00
06/21/18 1:19:19 AM 128 1.0 3.0 50 82 80.3 63.5 29.942 2.77 0.0 0 0.00 0.00 0.00 0.00
06/21/18 1:20:28 AM 128 1.0 3.0 50 82 80.3 63.5 29.941 2.77 0.0 0 0.00 0.00 0.00 0.00
06/21/18 1:21:21 AM 128 0.0 3.0 50 82 80.3 63.5 29.942 2.77 0.0 0 0.00 0.00 0.00 0.00
06/21/18 1:22:33 AM 128 0.0 3.0 50 82 80.3 63.5 29.943 2.77 0.0 0 0.00 0.00 0.00 0.00
06/21/18 1:23:23 AM 128 0.0 3.0 50 82 80.3 63.4 29.941 2.77 0.0 0 0.00 0.00 0.00 0.00
06/21/18 1:24:34 AM 128 0.0 3.0 50 82 80.3 63.4 29.942 2.77 0.0 0 0.00 0.00 0.00 0.00
06/21/18 1:25:28 AM 128 0.0 3.0 50 82 80.3 63.4 29.944 2.77 0.0 0 0.00 0.00 0.00 0.00
06/21/18 1:26:21 AM 128 0.0 3.0 50 82 80.3 63.4 29.940 2.77 0.0 0 0.00 0.00 0.00 0.00
06/21/18 1:27:33 AM 128 0.0 3.0 50 83 80.2 63.3 29.939 2.77 0.0 0 0.00 0.00 0.00 0.00
06/21/18 1:28:26 AM 128 0.0 3.0 50 82 80.2 63.2 29.939 2.77 0.0 0 0.00 0.00 0.00 0.00
06/21/18 1:29:35 AM 128 0.0 3.0 50 83 80.2 63.2 29.941 2.77 0.0 0 0.00 0.00 0.00 0.00
06/21/18 1:30:25 AM 128 0.0 3.0 50 83 80.2 63.2 29.942 2.77 0.0 0 0.00 0.00 0.00 0.00
06/21/18 1:31:19 AM 128 0.0 3.0 50 83 80.2 63.2 29.938 2.77 0.0 0 0.00 0.00 0.00 0.00
06/21/18 1:32:30 AM 128 0.0 3.0 50 83 80.2 63.2 29.941 2.77 0.0 0 0.00 0.00 0.00 0.00
06/21/18 1:33:24 AM 128 0.0 3.0 50 83 80.2 63.2 29.942 2.77 0.0 0 0.00 0.00 0.00 0.00
06/21/18 1:34:32 AM 128 0.0 3.0 50 82 80.2 63.1 29.941 2.77 0.0 0 0.00 0.00 0.00 0.00
06/21/18 1:35:23 AM 128 0.0 3.0 50 82 80.2 63.1 29.940 2.77 0.0 0 0.00 0.00 0.00 0.00
06/21/18 1:36:37 AM 128 1.0 3.0 50 82 80.2 63.1 29.942 2.77 0.0 0 0.00 0.00 0.00 0.00
06/21/18 1:37:31 AM 128 1.0 3.0 50 82 80.2 63.1 29.941 2.77 0.0 0 0.00 0.00 0.00 0.00
06/21/18 1:38:21 AM 128 1.0 3.0 50 82 80.2 63.1 29.941 2.77 0.0 0 0.00 0.00 0.00 0.00
06/21/18 1:39:26 AM 128 1.0 3.0 50 82 80.2 63.1 29.942 2.77 0.0 0 0.00 0.00 0.00 0.00
06/21/18 1:40:20 AM 128 1.0 3.0 50 82 80.2 63.1 29.941 2.77 0.0 0 0.00 0.00 0.00 0.00
06/21/18 1:41:32 AM 128 1.0 3.0 50 82 80.2 63.1 29.942 2.77 0.0 0 0.00 0.00 0.00 0.00
06/21/18 1:42:25 AM 128 1.0 3.0 50 82 80.1 63.1 29.941 2.77 0.0 0 0.00 0.00 0.00 0.00
06/21/18 1:43:18 AM 128 1.0 3.0 50 82 80.1 63.1 29.941 2.77 0.0 0 0.00 0.00 0.00 0.00
06/21/18 1:44:30 AM 128 2.0 3.0 50 82 80.1 63.0 29.941 2.77 0.0 0 0.00 0.00 0.00 0.00
06/21/18 1:45:20 AM 128 1.0 3.0 50 82 80.1 63.0 29.939 2.77 0.0 0 0.00 0.00 0.00 0.00
06/21/18 1:46:32 AM 128 2.0 3.0 50 82 80.1 62.9 29.941 2.77 0.0 0 0.00 0.00 0.00 0.00
06/21/18 1:47:25 AM 128 2.0 3.0 50 83 80.1 62.9 29.941 2.77 0.0 0 0.00 0.00 0.00 0.00
06/21/18 1:48:37 AM 128 1.0 3.0 50 83 80.1 62.9 29.939 2.77 0.0 0 0.00 0.00 0.00 0.00
06/21/18 1:49:30 AM 128 1.0 3.0 50 82 80.1 62.9 29.940 2.77 0.0 0 0.00 0.00 0.00 0.00
06/21/18 1:50:17 AM 128 1.0 3.0 50 82 80.1 62.9 29.939 2.77 0.0 0 0.00 0.00 0.00 0.00
06/21/18 1:51:29 AM 128 1.0 3.0 50 83 80.1 62.9 29.940 2.77 0.0 0 0.00 0.00 0.00 0.00
06/21/18 1:52:22 AM 128 0.0 3.0 50 83 80.1 62.9 29.940 2.77 0.0 0 0.00 0.00 0.00 0.00
06/21/18 1:53:37 AM 128 1.0 3.0 50 83 80.1 62.9 29.940 2.77 0.0 0 0.00 0.00 0.00 0.00
06/21/18 1:54:27 AM 128 1.0 3.0 50 83 80.1 62.9 29.938 2.77 0.0 0 0.00 0.00 0.00 0.00
06/21/18 1:55:21 AM 128 0.0 3.0 50 83 80.1 62.9 29.938 2.77 0.0 0 0.00 0.00 0.00 0.00
06/21/18 1:56:29 AM 128 0.0 3.0 50 83 80.1 62.9 29.938 2.77 0.0 0 0.00 0.00 0.00 0.00
06/21/18 1:57:23 AM 128 0.0 3.0 50 83 80.0 63.0 29.938 2.77 0.0 0 0.00 0.00 0.00 0.00
06/21/18 1:58:16 AM 128 0.0 3.0 50 83 80.1 62.9 29.939 2.77 0.0 0 0.00 0.00 0.00 0.00
06/21/18 1:59:28 AM 128 0.0 3.0 50 83 80.0 62.9 29.938 2.77 0.0 0 0.00 0.00 0.00 0.00
06/21/18 2:00:21 AM 128 0.0 3.0 50 83 80.0 62.9 29.939 2.77 0.0 0 0.00 0.00 0.00 0.00
06/21/18 2:01:30 AM 128 0.0 3.0 50 83 80.1 62.8 29.940 2.77 0.0 0 0.00 0.00 0.00 0.00
06/21/18 2:02:23 AM 128 0.0 3.0 50 83 80.0 62.7 29.937 2.77 0.0 0 0.00 0.00 0.00 0.00
06/21/18 2:03:35 AM 128 0.0 3.0 50 83 80.0 62.7 29.937 2.77 0.0 0 0.00 0.00 0.00 0.00
06/21/18 2:04:25 AM 128 0.0 3.0 50 83 80.0 62.7 29.938 2.77 0.0 0 0.00 0.00 0.00 0.00
06/21/18 2:05:19 AM 128 0.0 3.0 50 84 80.0 62.6 29.936 2.77 0.0 0 0.00 0.00 0.00 0.00
06/21/18 2:06:27 AM 128 0.0 3.0 50 84 80.0 62.6 29.937 2.77 0.0 0 0.00 0.00 0.00 0.00
06/21/18 2:07:21 AM 128 0.0 3.0 50 84 80.0 62.7 29.938 2.77 0.0 0 0.00 0.00 0.00 0.00
06/21/18 2:08:32 AM 128 0.0 3.0 50 84 80.0 62.7 29.938 2.77 0.0 0 0.00 0.00 0.00 0.00
06/21/18 2:09:26 AM 128 0.0 3.0 50 84 80.0 62.7 29.937 2.77 0.0 0 0.00 0.00 0.00 0.00
06/21/18 2:10:19 AM 128 0.0 3.0 50 83 80.0 62.6 29.940 2.77 0.0 0 0.00 0.00 0.00 0.00
06/21/18 2:11:31 AM 128 0.0 3.0 50 84 80.0 62.7 29.937 2.77 0.0 0 0.00 0.00 0.00 0.00
06/21/18 2:12:21 AM 128 0.0 3.0 50 83 80.0 62.6 29.938 2.77 0.0 0 0.00 0.00 0.00 0.00
06/21/18 2:13:33 AM 128 0.0 3.0 50 84 79.9 62.6 29.938 2.77 0.0 0 0.00 0.00 0.00 0.00
06/21/18 2:14:26 AM 128 0.0 3.0 50 84 79.9 62.6 29.938 2.77 0.0 0 0.00 0.00 0.00 0.00
06/21/18 2:15:17 AM 128 0.0 3.0 50 83 79.9 62.5 29.938 2.77 0.0 0 0.00 0.00 0.00 0.00
06/21/18 2:16:31 AM 128 0.0 3.0 50 83 79.9 62.4 29.937 2.77 0.0 0 0.00 0.00 0.00 0.00
06/21/18 2:17:19 AM 128 0.0 3.0 50 84 79.9 62.4 29.936 2.77 0.0 0 0.00 0.00 0.00 0.00
06/21/18 2:18:33 AM 128 0.0 3.0 50 83 79.9 62.3 29.938 2.77 0.0 0 0.00 0.00 0.00 0.00
06/21/18 2:19:24 AM 128 0.0 3.0 50 83 79.9 62.2 29.936 2.77 0.0 0 0.00 0.00 0.00 0.00
06/21/18 2:20:17 AM 128 0.0 3.0 50 83 79.9 62.1 29.937 2.77 0.0 0 0.00 0.00 0.00 0.00
06/21/18 2:21:29 AM 128 0.0 3.0 50 83 79.9 61.9 29.938 2.77 0.0 0 0.00 0.00 0.00 0.00
06/21/18 2:22:22 AM 128 0.0 3.0 50 84 79.9 61.8 29.937 2.77 0.0 0 0.00 0.00 0.00 0.00
06/21/18 2:23:31 AM 128 0.0 3.0 50 84 79.9 61.7 29.936 2.77 0.0 0 0.00 0.00 0.00 0.00
06/21/18 2:24:24 AM 128 0.0 3.0 50 84 79.9 61.7 29.937 2.77 0.0 0 0.00 0.00 0.00 0.00
06/21/18 2:25:18 AM 128 0.0 3.0 50 85 79.9 61.6 29.937 2.77 0.0 0 0.00 0.00 0.00 0.00
06/21/18 2:26:29 AM 128 0.0 3.0 50 85 79.9 61.6 29.937 2.77 0.0 0 0.00 0.00 0.00 0.00
06/21/18 2:27:23 AM 128 0.0 3.0 50 85 79.9 61.6 29.938 2.77 0.0 0 0.00 0.00 0.00 0.00
06/21/18 2:28:32 AM 128 0.0 3.0 50 85 79.8 61.7 29.937 2.77 0.0 0 0.00 0.00 0.00 0.00
06/21/18 2:29:22 AM 128 0.0 3.0 50 85 79.9 61.6 29.938 2.77 0.0 0 0.00 0.00 0.00 0.00
06/21/18 2:30:37 AM 128 0.0 3.0 50 85 79.8 61.7 29.936 2.77 0.0 0 0.00 0.00 0.00 0.00
06/21/18 2:32:19 AM 128 0.0 3.0 50 85 79.8 61.7 29.936 2.77 0.0 0 0.00 0.00 0.00 0.00
06/21/18 2:33:28 AM 128 0.0 3.0 50 85 79.9 61.7 29.936 2.77 0.0 0 0.00 0.00 0.00 0.00
06/21/18 2:34:21 AM 128 0.0 3.0 50 85 79.8 61.7 29.936 2.77 0.0 0 0.00 0.00 0.00 0.00
06/21/18 2:35:33 AM 128 0.0 3.0 50 85 79.8 61.8 29.937 2.77 0.0 0 0.00 0.00 0.00 0.00
06/21/18 2:36:26 AM 128 0.0 3.0 50 85 79.8 61.8 29.936 2.77 0.0 0 0.00 0.00 0.00 0.00
06/21/18 2:37:20 AM 128 0.0 3.0 50 85 79.8 61.7 29.935 2.77 0.0 0 0.00 0.00 0.00 0.00
06/21/18 2:38:34 AM 128 0.0 3.0 50 84 79.8 61.6 29.937 2.77 0.0 0 0.00 0.00 0.00 0.00
06/21/18 2:39:22 AM 128 0.0 3.0 50 84 79.8 61.6 29.936 2.77 0.0 0 0.00 0.00 0.00 0.00
06/21/18 2:40:33 AM 128 0.0 3.0 50 85 79.8 61.6 29.936 2.77 0.0 0 0.00 0.00 0.00 0.00
06/21/18 2:41:30 AM 128 0.0 3.0 50 85 79.8 61.6 29.936 2.77 0.0 0 0.00 0.00 0.00 0.00
06/21/18 2:42:20 AM 128 0.0 3.0 50 85 79.8 61.5 29.936 2.77 0.0 0 0.00 0.00 0.00 0.00
06/21/18 2:43:32 AM 128 0.0 3.0 50 85 79.8 61.5 29.935 2.77 0.0 0 0.00 0.00 0.00 0.00
06/21/18 2:44:19 AM 128 0.0 3.0 50 85 79.8 61.5 29.935 2.77 0.0 0 0.00 0.00 0.00 0.00
06/21/18 2:45:34 AM 128 0.0 3.0 50 85 79.7 61.5 29.933 2.77 0.0 0 0.00 0.00 0.00 0.00
06/21/18 2:46:27 AM 128 0.0 3.0 50 85 79.8 61.4 29.934 2.77 0.0 0 0.00 0.00 0.00 0.00
06/21/18 2:47:21 AM 128 0.0 3.0 50 85 79.8 61.4 29.934 2.77 0.0 0 0.00 0.00 0.00 0.00
06/21/18 2:48:33 AM 128 0.0 3.0 50 85 79.8 61.4 29.935 2.77 0.0 0 0.00 0.00 0.00 0.00
06/21/18 2:49:26 AM 128 0.0 3.0 50 85 79.7 61.4 29.935 2.77 0.0 0 0.00 0.00 0.00 0.00
06/21/18 2:50:35 AM 128 0.0 3.0 50 85 79.7 61.4 29.937 2.77 0.0 0 0.00 0.00 0.00 0.00
06/21/18 2:51:28 AM 128 0.0 3.0 50 85 79.7 61.4 29.935 2.77 0.0 0 0.00 0.00 0.00 0.00
06/21/18 2:52:22 AM 128 0.0 3.0 50 85 79.7 61.3 29.938 2.77 0.0 0 0.00 0.00 0.00 0.00
06/21/18 2:53:33 AM 128 0.0 3.0 50 85 79.7 61.2 29.935 2.77 0.0 0 0.00 0.00 0.00 0.00
06/21/18 2:54:27 AM 128 0.0 3.0 50 85 79.7 61.2 29.937 2.77 0.0 0 0.00 0.00 0.00 0.00
06/21/18 2:55:36 AM 128 0.0 3.0 50 85 79.7 61.1 29.934 2.77 0.0 0 0.00 0.00 0.00 0.00
06/21/18 2:56:29 AM 128 0.0 3.0 50 86 79.7 61.1 29.934 2.77 0.0 0 0.00 0.00 0.00 0.00
06/21/18 2:57:20 AM 128 0.0 3.0 50 86 79.7 61.2 29.937 2.77 0.0 0 0.00 0.00 0.00 0.00
06/21/18 2:58:31 AM 128 0.0 3.0 50 86 79.6 61.1 29.936 2.77 0.0 0 0.00 0.00 0.00 0.00
06/21/18 2:59:25 AM 128 0.0 3.0 50 85 79.6 61.1 29.937 2.77 0.0 0 0.00 0.00 0.00 0.00
06/21/18 3:00:18 AM 128 0.0 3.0 50 85 79.6 61.0 29.936 2.77 0.0 0 0.00 0.00 0.00 0.00
06/21/18 3:01:27 AM 96 2.0 3.0 50 85 79.6 60.9 29.937 2.77 0.0 0 0.00 0.00 0.00 0.00
06/21/18 3:02:18 AM 87 3.0 4.0 50 85 79.6 60.8 29.939 2.77 0.0 0 0.00 0.00 0.00 0.00
06/21/18 3:03:32 AM 71 3.0 4.0 50 85 79.6 60.8 29.936 2.77 0.0 0 0.00 0.00 0.00 0.00
06/21/18 3:04:23 AM 71 3.0 5.0 50 86 79.6 60.8 29.936 2.77 0.0 0 0.00 0.00 0.00 0.00
06/21/18 3:05:16 AM 65 3.0 5.0 50 86 79.6 60.8 29.938 2.77 0.0 0 0.00 0.00 0.00 0.00
06/21/18 3:06:25 AM 64 3.0 5.0 50 86 79.6 60.8 29.937 2.77 0.0 0 0.00 0.00 0.00 0.00
06/21/18 3:07:18 AM 69 3.0 5.0 50 86 79.6 60.9 29.938 2.77 0.0 0 0.00 0.00 0.00 0.00
06/21/18 3:08:30 AM 63 3.0 5.0 50 86 79.6 60.9 29.938 2.77 0.0 0 0.00 0.00 0.00 0.00
06/21/18 3:09:24 AM 63 2.0 5.0 50 86 79.6 60.9 29.937 2.77 0.0 0 0.00 0.00 0.00 0.00
06/21/18 3:10:17 AM 63 2.0 5.0 50 86 79.6 61.0 29.938 2.77 0.0 0 0.00 0.00 0.00 0.00
06/21/18 3:11:26 AM 63 2.0 5.0 50 86 79.6 60.9 29.936 2.77 0.0 0 0.00 0.00 0.00 0.00
06/21/18 3:12:20 AM 63 1.0 5.0 50 86 79.6 60.9 29.938 2.77 0.0 0 0.00 0.00 0.00 0.00
06/21/18 3:13:31 AM 62 2.0 5.0 50 86 79.6 60.9 29.936 2.77 0.0 0 0.00 0.00 0.00 0.00
06/21/18 3:14:25 AM 62 3.0 5.0 50 86 79.6 60.9 29.934 2.77 0.0 0 0.00 0.00 0.00 0.00
06/21/18 3:15:18 AM 62 3.0 5.0 50 86 79.6 60.9 29.936 2.77 0.0 0 0.00 0.00 0.00 0.00
06/21/18 3:16:30 AM 60 2.0 5.0 50 86 79.6 60.8 29.934 2.77 0.0 0 0.00 0.00 0.00 0.00
06/21/18 3:17:17 AM 59 4.0 5.0 50 86 79.6 60.8 29.934 2.77 0.0 0 0.00 0.00 0.00 0.00
06/21/18 3:18:32 AM 48 4.0 5.0 50 86 79.5 60.9 29.936 2.77 0.0 0 0.00 0.00 0.00 0.00
06/21/18 3:19:23 AM 49 4.0 5.0 50 86 79.5 60.9 29.935 2.77 0.0 0 0.00 0.00 0.00 0.00
06/21/18 3:20:16 AM 46 4.0 5.0 50 86 79.6 60.9 29.934 2.77 0.0 0 0.00 0.00 0.00 0.00
06/21/18 3:21:28 AM 46 3.0 5.0 50 87 79.5 60.9 29.934 2.77 0.0 0 0.00 0.00 0.00 0.00
06/21/18 3:22:15 AM 46 3.0 5.0 50 87 79.5 60.9 29.934 2.77 0.0 0 0.00 0.00 0.00 0.00
06/21/18 3:23:30 AM 46 2.0 5.0 50 87 79.5 61.0 29.934 2.77 0.0 0 0.00 0.00 0.00 0.00
06/21/18 3:24:21 AM 46 2.0 5.0 50 87 79.5 61.0 29.933 2.77 0.0 0 0.00 0.00 0.00 0.00
06/21/18 3:25:35 AM 46 1.0 5.0 50 86 79.5 61.0 29.934 2.77 0.0 0 0.00 0.00 0.00 0.00
06/21/18 3:26:29 AM 46 0.0 5.0 50 86 79.5 61.0 29.933 2.77 0.0 0 0.00 0.00 0.00 0.00
06/21/18 3:27:19 AM 46 0.0 5.0 50 86 79.4 61.0 29.934 2.77 0.0 0 0.00 0.00 0.00 0.00
06/21/18 3:28:28 AM 46 0.0 5.0 50 86 79.5 61.0 29.933 2.77 0.0 0 0.00 0.00 0.00 0.00
06/21/18 3:29:22 AM 46 0.0 5.0 50 86 79.4 60.9 29.935 2.77 0.0 0 0.00 0.00 0.00 0.00
06/21/18 3:30:36 AM 46 0.0 5.0 50 86 79.5 60.9 29.933 2.77 0.0 0 0.00 0.00 0.00 0.00
06/21/18 3:31:27 AM 46 0.0 5.0 50 86 79.4 60.8 29.933 2.77 0.0 0 0.00 0.00 0.00 0.00
06/21/18 3:32:18 AM 46 0.0 5.0 50 86 79.4 60.8 29.934 2.77 0.0 0 0.00 0.00 0.00 0.00
06/21/18 3:33:26 AM 46 0.0 5.0 50 86 79.4 60.7 29.933 2.77 0.0 0 0.00 0.00 0.00 0.00
06/21/18 3:34:20 AM 46 0.0 5.0 50 86 79.4 60.7 29.933 2.77 0.0 0 0.00 0.00 0.00 0.00
06/21/18 3:35:35 AM 46 0.0 5.0 50 87 79.4 60.7 29.930 2.77 0.0 0 0.00 0.00 0.00 0.00
06/21/18 3:36:25 AM 46 2.0 5.0 50 87 79.4 60.6 29.932 2.77 0.0 0 0.00 0.00 0.00 0.00
06/21/18 3:37:19 AM 46 1.0 5.0 50 87 79.4 60.5 29.933 2.77 0.0 0 0.00 0.00 0.00 0.00
06/21/18 3:38:24 AM 46 1.0 5.0 50 87 79.4 60.4 29.930 2.77 0.0 0 0.00 0.00 0.00 0.00
06/21/18 3:39:18 AM 46 2.0 5.0 50 87 79.4 60.4 29.929 2.77 0.0 0 0.00 0.00 0.00 0.00
06/21/18 3:40:30 AM 46 1.0 5.0 50 87 79.4 60.4 29.929 2.77 0.0 0 0.00 0.00 0.00 0.00
06/21/18 3:41:24 AM 46 1.0 5.0 50 87 79.4 60.3 29.930 2.77 0.0 0 0.00 0.00 0.00 0.00
06/21/18 3:42:35 AM 46 0.0 5.0 50 87 79.4 60.3 29.930 2.77 0.0 0 0.00 0.00 0.00 0.00
06/21/18 3:43:29 AM 46 1.0 5.0 50 87 79.4 60.3 29.929 2.77 0.0 0 0.00 0.00 0.00 0.00
06/21/18 3:44:16 AM 46 0.0 5.0 50 87 79.4 60.3 29.927 2.77 0.0 0 0.00 0.00 0.00 0.00
06/21/18 3:45:31 AM 46 0.0 5.0 50 87 79.4 60.3 29.927 2.77 0.0 0 0.00 0.00 0.00 0.00
06/21/18 3:46:22 AM 46 0.0 5.0 50 87 79.4 60.3 29.927 2.77 0.0 0 0.00 0.00 0.00 0.00
06/21/18 3:47:36 AM 46 0.0 5.0 50 88 79.4 60.3 29.928 2.77 0.0 0 0.00 0.00 0.00 0.00
06/21/18 3:48:27 AM 46 0.0 5.0 50 88 79.3 60.3 29.926 2.77 0.0 0 0.00 0.00 0.00 0.00
06/21/18 3:49:18 AM 46 1.0 5.0 50 88 79.4 60.3 29.927 2.77 0.0 0 0.00 0.00 0.00 0.00
06/21/18 3:50:29 AM 46 1.0 5.0 50 88 79.3 60.3 29.926 2.77 0.0 0 0.00 0.00 0.00 0.00
06/21/18 3:51:23 AM 46 1.0 5.0 50 88 79.3 60.3 29.922 2.77 0.0 0 0.00 0.00 0.00 0.00
06/21/18 3:52:34 AM 46 1.0 5.0 50 88 79.3 60.3 29.925 2.77 0.0 0 0.00 0.00 0.00 0.00
06/21/18 3:53:28 AM 46 1.0 5.0 50 88 79.3 60.3 29.925 2.77 0.0 0 0.00 0.00 0.00 0.00
06/21/18 3:54:22 AM 46 0.0 5.0 50 88 79.3 60.3 29.922 2.77 0.0 0 0.00 0.00 0.00 0.00
06/21/18 3:55:27 AM 46 0.0 5.0 50 87 79.3 60.3 29.925 2.77 0.0 0 0.00 0.00 0.00 0.00
06/21/18 3:56:21 AM 46 0.0 5.0 50 87 79.3 60.2 29.924 2.77 0.0 0 0.00 0.00 0.00 0.00
06/21/18 3:57:33 AM 46 0.0 5.0 50 87 79.2 60.1 29.926 2.77 0.0 0 0.00 0.00 0.00 0.00
06/21/18 3:58:26 AM 46 0.0 5.0 50 87 79.3 60.1 29.925 2.77 0.0 0 0.00 0.00 0.00 0.00
06/21/18 3:59:20 AM 46 0.0 5.0 50 87 79.2 60.0 29.924 2.77 0.0 0 0.00 0.00 0.00 0.00
06/21/18 4:00:29 AM 46 0.0 5.0 50 87 79.2 60.0 29.924 2.77 0.0 0 0.00 0.00 0.00 0.00
06/21/18 4:01:19 AM 46 0.0 5.0 50 88 79.2 59.9 29.924 2.77 0.0 0 0.00 0.00 0.00 0.00
06/21/18 4:02:31 AM 46 0.0 5.0 50 88 79.3 59.9 29.924 2.77 0.0 0 0.00 0.00 0.00 0.00
06/21/18 4:03:25 AM 46 0.0 5.0 50 88 79.2 59.9 29.924 2.77 0.0 0 0.00 0.00 0.00 0.00
06/21/18 4:04:19 AM 46 0.0 5.0 50 88 79.2 59.9 29.923 2.77 0.0 0 0.00 0.00 0.00 0.00
06/21/18 4:05:27 AM 46 0.0 5.0 50 88 79.2 59.9 29.923 2.77 0.0 0 0.00 0.00 0.00 0.00
06/21/18 4:06:18 AM 46 0.0 5.0 50 88 79.2 59.9 29.925 2.77 0.0 0 0.00 0.00 0.00 0.00
06/21/18 4:07:30 AM 46 0.0 5.0 50 88 79.2 59.9 29.924 2.77 0.0 0 0.00 0.00 0.00 0.00
06/21/18 4:08:23 AM 46 0.0 5.0 50 88 79.2 59.9 29.924 2.77 0.0 0 0.00 0.00 0.00 0.00
06/21/18 4:09:17 AM 46 0.0 5.0 50 88 79.2 59.9 29.925 2.77 0.0 0 0.00 0.00 0.00 0.00
06/21/18 4:10:29 AM 46 0.0 5.0 50 88 79.2 59.8 29.924 2.77 0.0 0 0.00 0.00 0.00 0.00
06/21/18 4:11:17 AM 46 0.0 5.0 50 88 79.1 59.8 29.925 2.77 0.0 0 0.00 0.00 0.00 0.00
06/21/18 4:12:31 AM 46 0.0 5.0 50 88 79.2 59.8 29.927 2.77 0.0 0 0.00 0.00 0.00 0.00
06/21/18 4:13:22 AM 46 0.0 5.0 50 88 79.1 59.7 29.925 2.77 0.0 0 0.00 0.00 0.00 0.00
06/21/18 4:14:37 AM 46 0.0 5.0 50 88 79.1 59.7 29.926 2.77 0.0 0 0.00 0.00 0.00 0.00
06/21/18 4:15:27 AM 46 0.0 5.0 50 88 79.2 59.6 29.928 2.77 0.0 0 0.00 0.00 0.00 0.00
06/21/18 4:16:36 AM 46 0.0 5.0 50 88 79.1 59.6 29.928 2.77 0.0 0 0.00 0.00 0.00 0.00
06/21/18 4:17:29 AM 46 0.0 5.0 50 88 79.2 59.6 29.928 2.77 0.0 0 0.00 0.00 0.00 0.00
06/21/18 4:18:20 AM 46 0.0 5.0 50 88 79.1 59.6 29.926 2.77 0.0 0 0.00 0.00 0.00 0.00
06/21/18 4:19:32 AM 46 0.0 5.0 50 88 79.1 59.6 29.928 2.77 0.0 0 0.00 0.00 0.00 0.00
06/21/18 4:20:25 AM 46 0.0 5.0 50 89 79.1 59.6 29.928 2.77 0.0 0 0.00 0.00 0.00 0.00
06/21/18 4:21:31 AM 46 0.0 5.0 50 88 79.1 59.6 29.928 2.77 0.0 0 0.00 0.00 0.00 0.00
06/21/18 4:22:25 AM 46 0.0 5.0 50 88 79.1 59.5 29.926 2.77 0.0 0 0.00 0.00 0.00 0.00
06/21/18 4:23:15 AM 46 0.0 5.0 50 88 79.1 59.5 29.927 2.77 0.0 0 0.00 0.00 0.00 0.00
06/21/18 4:24:30 AM 46 0.0 5.0 50 88 79.1 59.5 29.925 2.77 0.0 0 0.00 0.00 0.00 0.00
06/21/18 4:25:24 AM 46 0.0 5.0 50 88 79.1 59.5 29.927 2.77 0.0 0 0.00 0.00 0.00 0.00
06/21/18 4:26:36 AM 46 0.0 5.0 50 89 79.1 59.5 29.925 2.77 0.0 0 0.00 0.00 0.00 0.00
06/21/18 4:27:26 AM 46 0.0 5.0 50 89 79.1 59.5 29.927 2.77 0.0 0 0.00 0.00 0.00 0.00
06/21/18 4:28:20 AM 46 0.0 5.0 50 89 79.1 59.5 29.925 2.77 0.0 0 0.00 0.00 0.00 0.00
06/21/18 4:29:32 AM 46 0.0 5.0 50 89 79.1 59.6 29.927 2.77 0.0 0 0.00 0.00 0.00 0.00
06/21/18 4:30:25 AM 46 0.0 5.0 50 89 79.1 59.6 29.927 2.77 0.0 0 0.00 0.00 0.00 0.00
06/21/18 4:31:16 AM 46 0.0 5.0 50 89 79.1 59.6 29.927 2.77 0.0 0 0.00 0.00 0.00 0.00
06/21/18 4:32:25 AM 46 0.0 5.0 50 89 79.1 59.6 29.924 2.77 0.0 0 0.00 0.00 0.00 0.00
06/21/18 4:33:16 AM 46 0.0 5.0 50 88 79.1 59.5 29.924 2.77 0.0 0 0.00 0.00 0.00 0.00
06/21/18 4:34:28 AM 46 0.0 5.0 50 88 79.0 59.5 29.926 2.77 0.0 0 0.00 0.00 0.00 0.00
06/21/18 4:35:22 AM 46 0.0 5.0 50 88 79.1 59.4 29.926 2.77 0.0 0 0.00 0.00 0.00 0.00
06/21/18 4:36:31 AM 46 0.0 5.0 50 88 79.0 59.4 29.924 2.77 0.0 0 0.00 0.00 0.00 0.00
06/21/18 4:37:24 AM 46 0.0 5.0 50 89 79.0 59.4 29.924 2.77 0.0 0 0.00 0.00 0.00 0.00
06/21/18 4:38:33 AM 46 0.0 5.0 50 89 79.0 59.4 29.924 2.77 0.0 0 0.00 0.00 0.00 0.00
06/21/18 4:39:24 AM 46 0.0 5.0 50 89 79.0 59.4 29.926 2.77 0.0 0 0.00 0.00 0.00 0.00
06/21/18 4:40:18 AM 46 0.0 5.0 50 89 79.1 59.4 29.928 2.77 0.0 0 0.00 0.00 0.00 0.00
06/21/18 4:41:30 AM 46 0.0 5.0 50 89 79.0 59.4 29.926 2.77 0.0 0 0.00 0.00 0.00 0.00
06/21/18 4:42:23 AM 46 0.0 5.0 50 89 79.0 59.4 29.923 2.77 0.0 0 0.00 0.00 0.00 0.00
06/21/18 4:43:32 AM 46 0.0 5.0 50 89 78.9 59.4 29.926 2.77 0.0 0 0.00 0.00 0.00 0.00
06/21/18 4:44:26 AM 46 0.0 5.0 50 89 78.9 59.4 29.926 2.77 0.0 0 0.00 0.00 0.00 0.00
06/21/18 4:45:19 AM 46 0.0 5.0 50 89 79.0 59.3 29.926 2.77 0.0 0 0.00 0.00 0.00 0.00
06/21/18 4:46:31 AM 46 0.0 5.0 50 89 79.0 59.3 29.926 2.77 0.0 0 0.00 0.00 0.00 0.00
06/21/18 4:47:25 AM 46 0.0 5.0 50 89 78.9 59.3 29.925 2.77 0.0 0 0.00 0.00 0.00 0.00
06/21/18 4:48:15 AM 46 0.0 5.0 50 89 78.9 59.3 29.926 2.77 0.0 0 0.00 0.00 0.00 0.00
06/21/18 4:49:27 AM 46 0.0 5.0 50 89 78.9 59.3 29.928 2.77 0.0 0 0.00 0.00 0.00 0.00
06/21/18 4:50:21 AM 46 0.0 5.0 50 89 78.9 59.2 29.927 2.77 0.0 0 0.00 0.00 0.00 0.00
06/21/18 4:51:32 AM 46 0.0 5.0 50 89 78.9 59.2 29.928 2.77 0.0 0 0.00 0.00 0.00 0.00
06/21/18 4:52:23 AM 46 0.0 5.0 50 89 78.9 59.1 29.925 2.77 0.0 0 0.00 0.00 0.00 0.00
06/21/18 4:53:17 AM 46 0.0 5.0 50 89 78.9 59.1 29.928 2.77 0.0 0 0.00 0.00 0.00 0.00
06/21/18 4:54:25 AM 46 0.0 5.0 50 89 78.9 59.0 29.929 2.77 0.0 0 0.00 0.00 0.00 0.00
06/21/18 4:55:16 AM 46 0.0 5.0 50 89 78.9 59.0 29.928 2.77 0.0 0 0.00 0.00 0.00 0.00
06/21/18 4:56:31 AM 46 0.0 5.0 50 89 78.9 59.0 29.927 2.77 0.0 0 0.00 0.00 0.00 0.00
06/21/18 4:57:22 AM 46 0.0 5.0 50 89 78.9 58.9 29.927 2.77 0.0 0 0.00 0.00 0.00 0.00
06/21/18 4:58:36 AM 46 0.0 5.0 50 89 78.9 58.9 29.925 2.77 0.0 0 0.00 0.00 0.00 0.00
06/21/18 5:00:37 AM 46 0.0 5.0 50 89 78.9 58.9 29.926 2.77 0.0 0 0.00 0.00 0.00 0.00
06/21/18 5:01:27 AM 46 0.0 5.0 50 89 78.9 58.9 29.925 2.77 0.0 0 0.00 0.00 0.00 0.00
06/21/18 5:02:21 AM 46 0.0 5.0 50 89 78.9 59.0 29.925 2.77 0.0 0 0.00 0.00 0.00 0.00
06/21/18 5:03:33 AM 46 0.0 5.0 50 89 78.8 58.9 29.926 2.77 0.0 0 0.00 0.00 0.00 0.00
06/21/18 5:04:27 AM 46 0.0 5.0 50 89 78.8 59.0 29.926 2.77 0.0 0 0.00 0.00 0.00 0.00
06/21/18 5:05:36 AM 46 0.0 5.0 50 90 78.9 59.0 29.926 2.77 0.0 0 0.00 0.00 0.00 0.00
06/21/18 5:06:27 AM 46 0.0 5.0 50 90 78.8 59.0 29.926 2.77 0.0 0 0.00 0.00 0.00 0.00
06/21/18 5:07:20 AM 46 0.0 5.0 50 90 78.8 59.1 29.927 2.77 0.0 0 0.00 0.00 0.00 0.00
06/21/18 5:08:32 AM 46 0.0 5.0 50 90 78.8 59.1 29.926 2.77 0.0 0 0.00 0.00 0.00 0.00
06/21/18 5:09:26 AM 46 0.0 5.0 50 90 78.8 59.1 29.929 2.77 0.0 0 0.00 0.00 0.00 0.00
06/21/18 5:10:32 AM 46 0.0 5.0 50 90 78.8 59.0 29.927 2.77 0.0 0 0.00 0.00 0.00 0.00
06/21/18 5:11:25 AM 46 0.0 5.0 50 90 78.8 59.0 29.926 2.77 0.0 0 0.00 0.00 0.00 0.00
06/21/18 5:12:19 AM 46 0.0 5.0 50 90 78.8 58.9 29.929 2.77 0.0 0 0.00 0.00 0.00 0.00
06/21/18 5:13:34 AM 46 0.0 5.0 50 90 78.8 58.9 29.927 2.77 0.0 0 0.00 0.00 0.00 0.00
06/21/18 5:14:25 AM 46 0.0 5.0 50 90 78.7 58.9 29.928 2.77 0.0 0 0.00 0.00 0.00 0.00
06/21/18 5:15:19 AM 46 0.0 5.0 50 90 78.8 58.9 29.929 2.77 0.0 0 0.00 0.00 0.00 0.00
06/21/18 5:16:27 AM 46 0.0 5.0 50 90 78.7 58.9 29.930 2.77 0.0 0 0.00 0.00 0.00 0.00
06/21/18 5:17:21 AM 46 0.0 5.0 50 90 78.8 58.9 29.931 2.77 0.0 0 0.00 0.00 0.00 0.00
06/21/18 5:18:33 AM 46 0.0 5.0 50 89 78.7 58.7 29.931 2.77 0.0 0 0.00 0.00 0.00 0.00
06/21/18 5:19:27 AM 46 0.0 5.0 50 89 78.8 58.7 29.930 2.77 0.0 0 0.00 0.00 0.00 0.00
06/21/18 5:20:17 AM 46 0.0 5.0 50 89 78.8 58.6 29.931 2.77 0.0 0 0.00 0.00 0.00 0.00
06/21/18 5:21:23 AM 46 0.0 5.0 50 89 78.7 58.5 29.931 2.77 0.0 0 0.00 0.00 0.00 0.00
06/21/18 5:22:17 AM 46 0.0 5.0 50 89 78.7 58.5 29.929 2.77 0.0 0 0.00 0.00 0.00 0.00
06/21/18 5:23:29 AM 46 0.0 5.0 50 89 78.7 58.6 29.929 2.77 0.0 0 0.00 0.00 0.00 0.00
06/21/18 5:24:23 AM 46 0.0 5.0 50 90 78.7 58.6 29.932 2.77 0.0 0 0.00 0.00 0.00 0.00
06/21/18 5:25:35 AM 46 0.0 5.0 50 90 78.7 58.6 29.932 2.77 0.0 0 0.00 0.00 0.00 0.00
06/21/18 5:26:22 AM 46 0.0 5.0 50 89 78.7 58.5 29.930 2.77 0.0 0 0.00 0.00 0.00 0.00
06/21/18 5:27:37 AM 46 0.0 5.0 50 89 78.7 58.5 29.933 2.77 0.0 0 0.00 0.00 0.00 0.00
06/21/18 5:28:28 AM 46 0.0 5.0 50 89 78.7 58.4 29.932 2.77 0.0 0 0.00 0.00 0.00 0.00
06/21/18 5:29:22 AM 46 0.0 5.0 50 89 78.7 58.3 29.930 2.77 0.0 0 0.00 0.00 0.00 0.00
06/21/18 5:30:34 AM 46 0.0 5.0 50 89 78.6 58.3 29.933 2.77 0.0 0 0.00 0.00 0.00 0.00
06/21/18 5:31:28 AM 46 0.0 5.0 50 89 78.7 58.2 29.934 2.77 0.0 0 0.00 0.00 0.00 0.00
06/21/18 5:32:16 AM 46 0.0 5.0 50 89 78.7 58.2 29.935 2.77 0.0 0 0.00 0.00 0.00 0.00
06/21/18 5:33:31 AM 46 0.0 5.0 50 89 78.6 58.2 29.936 2.77 0.0 0 0.00 0.00 0.00 0.00
06/21/18 5:34:22 AM 46 0.0 5.0 50 90 78.6 58.2 29.935 2.77 0.0 0 0.00 0.00 0.00 0.00
06/21/18 5:35:37 AM 46 0.0 5.0 50 90 78.7 58.2 29.936 2.77 0.0 0 0.00 0.00 0.00 0.00
06/21/18 5:36:30 AM 46 0.0 5.0 50 90 78.6 58.2 29.934 2.77 0.0 0 0.00 0.00 0.00 0.00
06/21/18 5:37:18 AM 46 0.0 5.0 50 90 78.6 58.2 29.939 2.77 0.0 0 0.00 0.00 0.00 0.00
06/21/18 5:38:30 AM 46 0.0 5.0 50 90 78.6 58.2 29.939 2.77 0.0 0 0.00 0.00 0.00 0.00
06/21/18 5:39:21 AM 46 0.0 5.0 50 90 78.6 58.2 29.939 2.77 0.0 0 0.00 0.00 0.00 0.00
06/21/18 5:40:36 AM 46 0.0 5.0 50 90 78.6 58.3 29.939 2.77 0.0 0 0.00 0.00 0.00 0.00
06/21/18 5:41:27 AM 46 0.0 5.0 50 91 78.6 58.4 29.937 2.77 0.0 5 0.00 0.00 0.00 0.00
06/21/18 5:42:20 AM 46 0.0 5.0 50 91 78.6 58.4 29.940 2.77 0.0 5 0.00 0.00 0.00 0.00
06/21/18 5:43:26 AM 46 0.0 5.0 50 90 78.6 58.3 29.939 2.77 0.0 5 0.00 0.00 0.00 0.00
06/21/18 5:44:20 AM 46 0.0 5.0 50 90 78.6 58.2 29.940 2.77 0.0 5 0.00 0.00 0.00 0.00
06/21/18 5:45:32 AM 46 0.0 5.0 50 90 78.6 58.3 29.939 2.77 0.0 5 0.00 0.00 0.00 0.00
06/21/18 5:46:23 AM 46 0.0 5.0 50 90 78.6 58.3 29.939 2.77 0.0 5 0.00 0.00 0.00 0.00
06/21/18 5:47:17 AM 46 0.0 5.0 50 90 78.6 58.3 29.939 2.77 0.0 7 0.00 0.00 0.00 0.00
06/21/18 5:48:25 AM 46 0.0 5.0 50 90 78.6 58.4 29.938 2.77 0.0 7 0.00 0.00 0.00 0.00
06/21/18 5:49:16 AM 46 0.0 5.0 50 90 78.5 58.4 29.942 2.77 0.0 7 0.00 0.00 0.00 0.00
06/21/18 5:50:31 AM 46 0.0 5.0 50 90 78.5 58.4 29.942 2.77 0.0 7 0.00 0.00 0.00 0.00
06/21/18 5:51:22 AM 46 0.0 5.0 50 90 78.5 58.4 29.940 2.77 0.0 7 0.00 0.00 0.00 0.00
06/21/18 5:52:37 AM 46 0.0 5.0 50 90 78.5 58.4 29.941 2.77 0.0 9 0.00 0.00 0.00 0.00
06/21/18 5:53:25 AM 46 0.0 5.0 50 90 78.5 58.5 29.940 2.77 0.0 9 0.00 0.00 0.00 0.00
06/21/18 5:54:19 AM 46 0.0 5.0 50 90 78.5 58.5 29.940 2.77 0.0 9 0.00 0.00 0.00 0.00
06/21/18 5:55:31 AM 46 0.0 5.0 50 90 78.5 58.4 29.944 2.77 0.0 9 0.00 0.00 0.00 0.00
06/21/18 5:56:21 AM 46 0.0 5.0 50 90 78.5 58.4 29.941 2.77 0.0 9 0.00 0.00 0.00 0.00
06/21/18 5:57:37 AM 46 0.0 5.0 50 90 78.5 58.4 29.942 2.77 0.0 11 0.00 0.00 0.00 0.00
06/21/18 5:58:27 AM 46 0.0 5.0 50 90 78.5 58.4 29.942 2.77 0.0 11 0.00 0.00 0.00 0.00
06/21/18 5:59:15 AM 46 0.0 5.0 50 90 78.4 58.4 29.944 2.77 0.0 11 0.00 0.00 0.00 0.00
06/21/18 6:00:30 AM 46 0.0 5.0 50 90 78.4 58.4 29.941 2.77 0.0 11 0.00 0.00 0.00 0.00
06/21/18 6:01:21 AM 46 0.0 5.0 50 90 78.5 58.3 29.943 2.77 0.0 11 0.00 0.00 0.00 0.00
06/21/18 6:02:36 AM 46 0.0 5.0 50 90 78.5 58.3 29.944 2.77 0.0 12 0.00 0.00 0.00 0.00
06/21/18 6:03:27 AM 46 0.0 5.0 50 90 78.5 58.3 29.943 2.77 0.0 12 0.00 0.00 0.00 0.00
06/21/18 6:04:36 AM 46 0.0 5.0 50 90 78.4 58.3 29.943 2.77 0.0 12 0.00 0.00 0.00 0.00
06/21/18 6:05:30 AM 46 0.0 5.0 50 90 78.4 58.4 29.942 2.77 0.0 14 0.00 0.00 0.00 0.00
06/21/18 6:06:21 AM 46 0.0 5.0 50 90 78.4 58.4 29.943 2.77 0.0 14 0.00 0.00 0.00 0.00
06/21/18 6:07:33 AM 46 0.0 5.0 50 90 78.4 58.5 29.942 2.77 0.0 14 0.00 0.00 0.00 0.00
06/21/18 6:08:27 AM 46 0.0 5.0 50 90 78.4 58.6 29.944 2.77 0.0 14 0.00 0.00 0.00 0.00
06/21/18 6:09:18 AM 46 0.0 5.0 50 90 78.4 58.6 29.943 2.77 0.0 16 0.00 0.00 0.00 0.00
06/21/18 6:10:27 AM 46 0.0 5.0 50 90 78.4 58.6 29.942 2.77 0.0 18 0.00 0.00 0.00 0.00
06/21/18 6:11:21 AM 46 0.0 5.0 50 90 78.4 58.6 29.945 2.77 0.0 18 0.00 0.00 0.00 0.00
06/21/18 6:12:30 AM 46 0.0 5.0 50 90 78.4 58.6 29.942 2.77 0.0 19 0.00 0.00 0.00 0.00
06/21/18 6:13:23 AM 46 0.0 5.0 50 90 78.3 58.6 29.943 2.77 0.0 19 0.00 0.00 0.00 0.00
06/21/18 6:14:35 AM 46 0.0 5.0 50 90 78.3 58.6 29.944 2.77 0.0 21 0.00 0.00 0.00 0.00
06/21/18 6:15:26 AM 46 0.0 5.0 50 90 78.4 58.6 29.943 2.77 0.0 23 0.00 0.00 0.00 0.00
06/21/18 6:16:20 AM 46 0.0 5.0 50 91 78.3 58.6 29.944 2.77 0.0 23 0.00 0.00 0.00 0.00
06/21/18 6:17:32 AM 46 0.0 5.0 50 91 78.3 58.6 29.944 2.77 0.0 25 0.00 0.00 0.00 0.00
06/21/18 6:18:26 AM 46 0.0 5.0 50 91 78.3 58.6 29.944 2.77 0.0 26 0.00 0.00 0.00 0.00
06/21/18 6:19:20 AM 46 0.0 5.0 50 91 78.3 58.6 29.943 2.77 0.0 23 0.00 0.00 0.00 0.00
06/21/18 6:20:26 AM 46 0.0 5.0 50 91 78.3 58.6 29.943 2.77 0.0 28 0.00 0.00 0.00 0.00
06/21/18 6:21:19 AM 46 0.0 5.0 50 91 78.4 58.7 29.946 2.77 0.0 33 0.00 0.00 0.00 0.00
06/21/18 6:22:31 AM 46 0.0 5.0 50 91 78.3 58.7 29.943 2.77 0.0 44 0.00 0.00 0.00 0.00
06/21/18 6:23:25 AM 46 0.0 5.0 50 91 78.3 58.7 29.944 2.77 0.0 44 0.00 0.00 0.00 0.00
06/21/18 6:24:19 AM 46 0.0 5.0 50 91 78.3 58.7 29.944 2.77 0.0 51 0.00 0.00 0.00 0.00
06/21/18 6:25:31 AM 46 0.0 5.0 50 91 78.3 58.8 29.946 2.77 0.0 53 0.00 0.00 0.00 0.00
06/21/18 6:26:19 AM 46 0.0 5.0 50 91 78.2 58.9 29.945 2.77 0.0 54 0.00 0.00 0.00 0.00
06/21/18 6:27:34 AM 46 0.0 5.0 50 91 78.3 59.0 29.945 2.77 0.0 58 0.00 0.00 0.00 0.00
06/21/18 6:28:27 AM 46 0.0 5.0 50 91 78.3 59.0 29.945 2.77 0.0 60 0.00 0.00 0.00 0.00
06/21/18 6:29:18 AM 46 0.0 5.0 50 91 78.2 59.0 29.948 2.77 0.0 62 0.00 0.00 0.00 0.00
06/21/18 6:30:33 AM 46 0.0 5.0 50 90 78.3 59.1 29.947 2.77 0.0 63 0.00 0.00 0.00 0.00
06/21/18 6:31:21 AM 46 0.0 5.0 50 90 78.2 59.1 29.946 2.77 0.0 67 0.00 0.00 0.00 0.00
06/21/18 6:32:33 AM 46 0.0 5.0 50 90 78.3 59.1 29.947 2.77 0.0 69 0.00 0.00 0.00 0.00
06/21/18 6:33:27 AM 46 0.0 5.0 50 90 78.2 59.1 29.947 2.77 0.0 70 0.00 0.00 0.00 0.00
06/21/18 6:34:21 AM 46 0.0 5.0 50 90 78.3 59.2 29.947 2.77 0.0 72 0.00 0.00 0.00 0.00
06/21/18 6:35:33 AM 46 0.0 5.0 50 90 78.2 59.3 29.947 2.77 0.0 76 0.00 0.00 0.00 0.00
06/21/18 6:36:24 AM 46 0.0 5.0 50 90 78.2 59.5 29.949 2.77 0.0 77 0.00 0.00 0.00 0.00
06/21/18 6:37:33 AM 46 0.0 5.0 50 90 78.2 59.6 29.946 2.77 0.0 81 0.00 0.00 0.00 0.00
06/21/18 6:38:24 AM 46 0.0 5.0 50 89 78.2 59.6 29.947 2.77 0.0 81 0.00 0.00 0.00 0.00
06/21/18 6:39:18 AM 46 0.0 5.0 50 89 78.2 59.7 29.948 2.77 0.0 84 0.00 0.00 0.00 0.00
06/21/18 6:40:30 AM 46 0.0 5.0 50 89 78.2 59.8 29.947 2.77 0.0 88 0.00 0.00 0.00 0.00
06/21/18 6:41:24 AM 46 0.0 5.0 50 89 78.2 59.9 29.948 2.77 0.0 90 0.00 0.00 0.00 0.00
06/21/18 6:42:30 AM 46 0.0 5.0 50 88 78.2 60.0 29.947 2.77 0.0 91 0.00 0.00 0.00 0.00
06/21/18 6:43:24 AM 46 0.0 5.0 50 88 78.2 60.0 29.947 2.77 0.0 93 0.00 0.00 0.00 0.00
06/21/18 6:44:36 AM 46 0.0 5.0 50 88 78.2 60.1 29.950 2.77 0.0 95 0.00 0.00 0.00 0.00
06/21/18 6:45:26 AM 46 0.0 5.0 50 88 78.2 60.2 29.950 2.77 0.0 97 0.00 0.00 0.00 0.00
06/21/18 6:46:20 AM 46 0.0 5.0 50 88 78.1 60.2 29.947 2.77 0.0 98 0.00 0.00 0.00 0.00
06/21/18 6:47:29 AM 46 0.0 5.0 50 88 78.2 60.3 29.950 2.77 0.0 102 0.00 0.00 0.00 0.00
06/21/18 6:48:23 AM 46 0.0 5.0 50 88 78.2 60.3 29.951 2.77 0.0 105 0.00 0.00 0.00 0.00
06/21/18 6:49:35 AM 46 0.0 5.0 50 88 78.2 60.4 29.951 2.77 0.0 109 0.00 0.00 0.00 0.00
06/21/18 6:50:29 AM 46 0.0 5.0 50 88 78.1 60.5 29.949 2.77 0.0 113 0.00 0.00 0.00 0.00
06/21/18 6:51:20 AM 46 0.0 5.0 50 88 78.1 60.6 29.950 2.77 0.0 116 0.00 0.00 0.00 0.00
06/21/18 6:52:35 AM 46 0.0 5.0 50 88 78.1 60.7 29.950 2.77 0.0 118 0.00 0.00 0.00 0.00
06/21/18 6:53:23 AM 46 0.0 5.0 50 88 78.1 60.8 29.949 2.77 0.0 121 0.00 0.00 0.00 0.00
06/21/18 6:54:35 AM 46 0.0 5.0 50 88 78.2 61.0 29.949 2.77 0.0 127 0.00 0.00 0.00 0.00
06/21/18 6:55:28 AM 46 0.0 5.0 50 87 78.1 61.1 29.949 2.77 0.0 130 0.00 0.00 0.00 0.00
06/21/18 6:56:19 AM 52 2.0 5.0 50 87 78.2 61.1 29.952 2.77 0.0 132 0.00 0.00 0.00 0.00
06/21/18 6:57:31 AM 53 2.0 5.0 50 87 78.1 61.2 29.950 2.77 0.0 135 0.00 0.00 0.00 0.00
06/21/18 6:58:22 AM 53 2.0 5.0 50 87 78.1 61.2 29.950 2.77 0.0 139 0.00 0.00 0.00 0.00
06/21/18 6:59:34 AM 53 1.0 5.0 50 86 78.1 61.3 29.950 2.77 0.0 141 0.00 0.00 0.00 0.00
06/21/18 7:00:28 AM 53 3.0 5.0 50 86 78.1 61.3 29.950 2.77 0.0 144 0.00 0.00 0.00 0.00
06/21/18 7:01:19 AM 53 2.0 5.0 50 86 78.1 61.3 29.952 2.77 0.0 146 0.00 0.00 0.00 0.00
06/21/18 7:02:31 AM 53 2.0 5.0 50 86 78.1 61.4 29.950 2.77 0.0 148 0.00 0.00 0.00 0.00
06/21/18 7:03:25 AM 53 2.0 5.0 50 86 78.1 61.4 29.953 2.77 0.0 149 0.00 0.00 0.00 0.00
06/21/18 7:04:34 AM 53 3.0 5.0 50 86 78.1 61.5 29.951 2.77 0.0 153 0.00 0.00 0.00 0.00
06/21/18 7:05:28 AM 53 3.0 5.0 50 85 78.0 61.6 29.951 2.77 0.0 155 0.00 0.00 0.00 0.00
06/21/18 7:06:19 AM 53 3.0 5.0 50 85 78.1 61.6 29.951 2.77 0.0 155 0.00 0.00 0.00 0.00
06/21/18 7:07:31 AM 53 3.0 5.0 50 86 78.1 61.7 29.951 2.77 0.0 162 0.00 0.00 0.00 0.00
06/21/18 7:08:22 AM 53 3.0 5.0 50 85 78.0 61.8 29.952 2.77 0.0 163 0.00 0.00 0.00 0.00
06/21/18 7:09:34 AM 53 3.0 5.0 50 85 78.1 61.9 29.951 2.77 0.0 171 0.00 0.00 0.00 0.00
06/21/18 7:10:25 AM 53 1.0 5.0 50 85 78.1 61.9 29.954 2.77 0.0 171 0.00 0.00 0.00 0.00
06/21/18 7:11:19 AM 53 2.0 5.0 50 85 78.0 62.0 29.955 2.77 0.0 171 0.00 0.00 0.00 0.00
06/21/18 7:12:31 AM 53 4.0 5.0 50 85 78.1 62.1 29.953 2.77 0.0 176 0.00 0.00 0.00 0.00
06/21/18 7:13:25 AM 53 5.0 5.0 50 85 78.0 62.1 29.955 2.77 0.0 179 0.00 0.00 0.00 0.00
06/21/18 7:14:16 AM 53 4.0 5.0 50 85 78.1 62.1 29.954 2.77 0.0 181 0.00 0.00 0.00 0.00
06/21/18 7:15:25 AM 53 2.0 5.0 50 85 78.0 62.2 29.956 2.77 0.0 185 0.00 0.00 0.00 0.00
06/21/18 7:16:19 AM 53 3.0 5.0 50 85 78.1 62.2 29.955 2.77 0.0 190 0.00 0.00 0.00 0.00
06/21/18 7:17:28 AM 53 1.0 5.0 50 85 78.0 62.2 29.956 2.77 0.0 193 0.00 0.00 0.00 0.00
06/21/18 7:18:22 AM 53 1.0 5.0 50 85 78.0 62.2 29.956 2.77 0.0 195 0.00 0.00 0.00 0.00
06/21/18 7:19:34 AM 53 2.0 5.0 50 85 78.0 62.3 29.956 2.77 0.0 199 0.00 0.00 0.00 0.00
06/21/18 7:20:25 AM 53 2.0 5.0 50 84 78.1 62.3 29.957 2.77 0.5 202 0.00 0.00 0.00 0.00
06/21/18 7:21:37 AM 53 1.0 5.0 50 84 78.0 62.4 29.958 2.77 0.5 206 0.00 0.00 0.00 0.00
06/21/18 7:22:27 AM 53 1.0 5.0 50 84 78.0 62.5 29.958 2.77 0.5 211 0.00 0.00 0.00 0.00
06/21/18 7:23:18 AM 53 2.0 5.0 50 84 78.0 62.5 29.958 2.77 0.5 216 0.00 0.00 0.00 0.00
06/21/18 7:24:31 AM 53 1.0 5.0 50 84 78.0 62.6 29.960 2.77 0.5 220 0.00 0.00 0.00 0.00
06/21/18 7:25:18 AM 53 0.0 5.0 50 84 78.0 62.6 29.956 2.77 0.5 220 0.00 0.00 0.00 0.00
06/21/18 7:26:33 AM 53 0.0 5.0 50 84 78.0 62.7 29.959 2.77 0.5 225 0.00 0.00 0.00 0.00
06/21/18 7:27:24 AM 53 2.0 5.0 50 84 78.0 62.7 29.958 2.77 0.6 225 0.00 0.00 0.00 0.00
06/21/18 7:28:18 AM 53 1.0 5.0 50 84 78.0 62.7 29.960 2.77 0.6 232 0.00 0.00 0.00 0.00
06/21/18 7:29:30 AM 53 1.0 5.0 50 84 78.0 62.7 29.957 2.77 0.6 236 0.00 0.00 0.00 0.00
06/21/18 7:30:24 AM 53 1.0 5.0 50 84 78.0 62.7 29.959 2.77 0.6 241 0.00 0.00 0.00 0.00
06/21/18 7:31:33 AM 53 1.0 5.0 50 84 78.0 62.7 29.958 2.77 0.6 244 0.00 0.00 0.00 0.00
06/21/18 7:32:24 AM 53 1.0 5.0 50 84 78.0 62.8 29.961 2.77 0.6 250 0.00 0.00 0.00 0.00
06/21/18 7:33:36 AM 53 0.0 5.0 50 84 78.0 62.9 29.960 2.77 0.6 253 0.00 0.00 0.00 0.00
06/21/18 7:34:30 AM 53 0.0 5.0 50 84 78.0 63.0 29.958 2.77 0.7 257 0.00 0.00 0.00 0.00
06/21/18 7:35:24 AM 53 0.0 5.0 50 83 78.0 63.2 29.961 2.77 0.7 258 0.00 0.00 0.00 0.00
06/21/18 7:36:30 AM 53 0.0 5.0 50 83 78.0 63.2 29.960 2.77 0.7 262 0.00 0.00 0.00 0.00
06/21/18 7:37:21 AM 53 0.0 5.0 50 83 78.0 63.2 29.960 2.77 0.7 265 0.00 0.00 0.00 0.00
06/21/18 7:38:37 AM 53 0.0 5.0 50 84 78.0 63.4 29.962 2.77 0.7 274 0.00 0.00 0.00 0.00
06/21/18 7:39:31 AM 53 0.0 5.0 50 84 78.0 63.5 29.961 2.77 0.7 272 0.00 0.00 0.00 0.00
06/21/18 7:40:21 AM 53 0.0 5.0 50 83 78.0 63.5 29.962 2.77 0.7 274 0.00 0.00 0.00 0.00
06/21/18 7:41:31 AM 53 0.0 5.0 50 83 78.0 63.6 29.961 2.77 0.8 278 0.00 0.00 0.00 0.00
06/21/18 7:42:21 AM 53 0.0 5.0 50 82 78.0 63.6 29.961 2.77 0.8 278 0.00 0.00 0.00 0.00
06/21/18 7:43:34 AM 53 0.0 5.0 50 82 78.0 63.6 29.961 2.77 0.8 285 0.00 0.00 0.00 0.00
06/21/18 7:44:28 AM 53 1.0 5.0 50 82 78.0 63.6 29.960 2.77 0.8 288 0.00 0.00 0.00 0.00
06/21/18 7:45:18 AM 53 1.0 5.0 50 83 77.9 63.6 29.960 2.77 0.8 292 0.00 0.00 0.00 0.00
06/21/18 7:46:31 AM 53 0.0 5.0 50 82 78.0 63.6 29.961 2.77 0.8 295 0.00 0.00 0.00 0.00
06/21/18 7:47:18 AM 53 0.0 5.0 50 84 78.0 63.6 29.963 2.77 0.9 299 0.00 0.00 0.00 0.00
06/21/18 7:48:34 AM 53 0.0 5.0 50 83 77.9 63.6 29.963 2.77 0.9 301 0.00 0.00 0.00 0.00
06/21/18 7:49:25 AM 53 0.0 5.0 50 83 78.0 63.5 29.964 2.77 0.9 304 0.00 0.00 0.00 0.00
06/21/18 7:50:18 AM 53 0.0 5.0 50 83 78.0 63.5 29.965 2.77 0.9 308 0.00 0.00 0.00 0.00
06/21/18 7:51:31 AM 53 0.0 5.0 50 83 77.9 63.5 29.960 2.77 0.9 311 0.00 0.00 0.00 0.00
06/21/18 7:52:19 AM 53 0.0 5.0 50 83 78.0 63.5 29.965 2.77 0.9 315 0.00 0.00 0.00 0.00
06/21/18 7:53:34 AM 53 0.0 5.0 50 83 78.0 63.6 29.963 2.77 1.0 320 0.00 0.00 0.00 0.00
06/21/18 7:54:25 AM 53 0.0 5.0 50 82 77.9 63.6 29.965 2.77 1.0 320 0.00 0.00 0.00 0.00
06/21/18 7:55:19 AM 53 0.0 5.0 50 83 78.0 63.7 29.965 2.77 1.0 322 0.00 0.00 0.00 0.00
06/21/18 7:56:31 AM 53 0.0 5.0 50 83 77.9 63.8 29.963 2.77 1.0 332 0.00 0.00 0.00 0.00
06/21/18 7:57:25 AM 53 0.0 5.0 50 82 77.9 64.0 29.965 2.77 1.0 336 0.00 0.00 0.00 0.00
06/21/18 7:58:31 AM 44 0.0 5.0 50 82 78.0 64.1 29.965 2.77 1.1 341 0.00 0.00 0.00 0.00
06/21/18 7:59:22 AM 44 0.0 5.0 50 82 77.9 64.2 29.965 2.77 1.1 343 0.00 0.00 0.00 0.00
06/21/18 8:00:34 AM 44 0.0 5.0 50 81 77.9 64.3 29.969 2.77 1.1 346 0.00 0.00 0.00 0.00
06/21/18 8:01:28 AM 44 0.0 5.0 50 81 78.0 64.4 29.967 2.77 1.1 350 0.00 0.00 0.00 0.00
06/21/18 8:02:19 AM 44 0.0 5.0 50 82 77.9 64.6 29.968 2.77 1.1 355 0.00 0.00 0.00 0.00
06/21/18 8:03:28 AM 44 0.0 5.0 50 82 77.9 64.8 29.965 2.77 1.2 359 0.00 0.00 0.00 0.00
06/21/18 8:04:19 AM 44 0.0 5.0 50 82 77.9 64.9 29.965 2.77 1.2 359 0.00 0.00 0.00 0.00
06/21/18 8:05:35 AM 44 0.0 5.0 50 80 77.9 65.0 29.964 2.77 1.2 366 0.00 0.00 0.00 0.00
06/21/18 8:06:25 AM 44 0.0 5.0 50 80 77.9 64.9 29.965 2.77 1.2 367 0.00 0.00 0.00 0.00
06/21/18 8:07:16 AM 44 0.0 5.0 50 80 78.0 64.9 29.968 2.77 1.2 373 0.00 0.00 0.00 0.00
06/21/18 8:08:26 AM 44 0.0 5.0 50 81 78.0 64.9 29.965 2.77 1.2 373 0.00 0.00 0.00 0.00
06/21/18 8:09:20 AM 44 0.0 5.0 50 80 77.9 64.9 29.968 2.77 1.3 374 0.00 0.00 0.00 0.00
06/21/18 8:10:32 AM 44 0.0 5.0 50 81 77.9 64.9 29.969 2.77 1.3 380 0.00 0.00 0.00 0.00
06/21/18 8:11:26 AM 44 0.0 5.0 50 81 78.0 65.0 29.965 2.77 1.3 381 0.00 0.00 0.00 0.00
06/21/18 8:12:20 AM 44 0.0 5.0 50 81 77.9 65.0 29.969 2.77 1.3 383 0.00 0.00 0.00 0.00
06/21/18 8:13:32 AM 44 0.0 5.0 50 82 77.9 65.2 29.965 2.77 1.3 390 0.00 0.00 0.00 0.00
06/21/18 8:14:20 AM 44 0.0 5.0 50 82 77.9 65.2 29.965 2.77 1.3 392 0.00 0.00 0.00 0.00
06/21/18 8:15:32 AM 44 0.0 5.0 50 80 77.9 65.2 29.969 2.77 1.4 397 0.00 0.00 0.00 0.00
06/21/18 8:16:26 AM 44 0.0 5.0 50 80 77.9 65.2 29.970 2.77 1.4 401 0.00 0.00 0.00 0.00
06/21/18 8:17:17 AM 44 2.0 5.0 50 80 77.9 65.4 29.970 2.77 1.4 403 0.00 0.00 0.00 0.00
06/21/18 8:18:32 AM 44 2.0 5.0 50 80 77.9 65.6 29.970 2.77 1.5 408 0.00 0.00 0.00 0.00
06/21/18 8:19:20 AM 44 2.0 5.0 50 80 77.9 65.6 29.969 2.77 1.5 408 0.00 0.00 0.00 0.00
06/21/18 8:20:32 AM 45 1.0 5.0 50 80 77.9 65.5 29.970 2.77 1.5 411 0.00 0.00 0.00 0.00
06/21/18 8:21:26 AM 45 1.0 5.0 50 79 78.0 65.5 29.969 2.77 1.5 417 0.00 0.00 0.00 0.00
06/21/18 8:22:20 AM 45 1.0 5.0 50 79 77.9 65.5 29.969 2.77 1.5 422 0.00 0.00 0.00 0.00
06/21/18 8:23:33 AM 45 1.0 5.0 50 79 77.9 65.5 29.968 2.77 1.5 427 0.00 0.00 0.00 0.00
06/21/18 8:24:27 AM 45 1.0 5.0 50 79 77.9 65.5 29.969 2.77 1.6 427 0.00 0.00 0.00 0.00
06/21/18 8:25:33 AM 45 1.0 5.0 50 79 77.9 65.7 29.969 2.77 1.6 429 0.00 0.00 0.00 0.00
06/21/18 8:26:27 AM 45 1.0 5.0 50 78 77.9 65.8 29.970 2.77 1.6 436 0.00 0.00 0.00 0.00
06/21/18 8:27:21 AM 45 1.0 5.0 50 78 78.0 65.9 29.969 2.77 1.6 439 0.00 0.00 0.00 0.00
06/21/18 8:28:30 AM 45 1.0 5.0 50 78 77.9 66.1 29.967 2.77 1.7 441 0.00 0.00 0.00 0.00
06/21/18 8:29:24 AM 45 1.0 5.0 50 80 77.9 66.2 29.968 2.77 1.7 445 0.00 0.00 0.00 0.00
06/21/18 8:30:33 AM 45 1.0 5.0 50 79 77.9 66.3 29.969 2.77 1.7 450 0.00 0.00 0.00 0.00
06/21/18 8:31:27 AM 45 1.0 5.0 50 79 77.9 66.3 29.968 2.77 1.7 450 0.00 0.00 0.00 0.00
06/21/18 8:32:18 AM 45 1.0 5.0 50 78 77.9 66.3 29.970 2.77 1.8 454 0.00 0.00 0.00 0.00
06/21/18 8:33:31 AM 45 0.0 5.0 50 78 77.9 66.3 29.969 2.77 1.8 459 0.00 0.00 0.00 0.00
06/21/18 8:34:22 AM 45 1.0 5.0 50 79 77.9 66.3 29.970 2.77 1.8 462 0.00 0.00 0.00 0.00
06/21/18 8:35:31 AM 45 1.0 5.0 50 80 77.9 66.3 29.969 2.77 1.8 464 0.00 0.00 0.00 0.00
06/21/18 8:36:25 AM 108 2.0 5.0 50 78 77.9 66.5 29.966 2.77 1.9 468 0.00 0.00 0.00 0.00
06/21/18 8:37:37 AM 109 3.0 5.0 50 77 77.9 66.5 29.965 2.77 1.9 475 0.00 0.00 0.00 0.00
06/21/18 8:38:28 AM 116 3.0 5.0 50 77 77.8 66.6 29.969 2.77 1.9 475 0.00 0.00 0.00 0.00
06/21/18 8:39:22 AM 117 3.0 5.0 50 77 77.9 66.6 29.969 2.77 1.9 478 0.00 0.00 0.00 0.00
06/21/18 8:40:35 AM 117 2.0 5.0 50 76 77.9 66.5 29.966 2.77 2.0 482 0.00 0.00 0.00 0.00
06/21/18 8:41:23 AM 118 3.0 5.0 50 77 77.9 66.6 29.969 2.77 2.0 483 0.00 0.00 0.00 0.00
06/21/18 8:42:35 AM 118 1.0 5.0 50 77 77.9 66.7 29.968 2.77 2.0 485 0.00 0.00 0.00 0.00
06/21/18 8:43:29 AM 118 3.0 5.0 50 76 77.9 66.7 29.965 2.77 2.0 490 0.00 0.00 0.00 0.00
06/21/18 8:44:23 AM 118 1.0 5.0 50 76 77.9 66.7 29.965 2.77 2.0 494 0.00 0.00 0.00 0.00
06/21/18 8:45:35 AM 118 0.0 5.0 50 77 77.9 66.8 29.969 2.77 2.1 497 0.00 0.00 0.00 0.00
06/21/18 8:46:23 AM 118 0.0 5.0 50 76 77.9 66.8 29.970 2.77 2.1 501 0.00 0.00 0.00 0.00
06/21/18 8:47:17 AM 118 0.0 5.0 50 77 77.9 66.8 29.966 2.77 2.1 503 0.00 0.00 0.00 0.00
06/21/18 8:48:29 AM 118 0.0 5.0 50 77 77.9 67.0 29.969 2.77 2.2 506 0.00 0.00 0.00 0.00
06/21/18 8:49:23 AM 117 0.0 5.0 50 76 77.9 67.2 29.969 2.77 2.2 508 0.00 0.00 0.00 0.00
06/21/18 8:50:35 AM 117 0.0 5.0 50 76 77.9 67.4 29.965 2.77 2.2 513 0.00 0.00 0.00 0.00
06/21/18 8:51:29 AM 117 0.0 5.0 50 77 77.9 67.6 29.968 2.77 2.2 519 0.00 0.00 0.00 0.00
06/21/18 8:52:35 AM 117 0.0 5.0 50 76 78.0 67.9 29.971 2.77 2.3 526 0.00 0.00 0.00 0.00
06/21/18 8:53:29 AM 118 2.0 5.0 50 74 77.9 68.2 29.970 2.77 2.3 526 0.00 0.00 0.00 0.00
06/21/18 8:54:20 AM 117 2.0 5.0 50 73 77.9 68.3 29.967 2.77 2.3 526 0.00 0.00 0.00 0.00
06/21/18 8:55:35 AM 90 3.0 5.0 50 73 77.9 68.1 29.970 2.77 2.4 538 0.00 0.00 0.00 0.00
06/21/18 8:56:26 AM 123 2.0 5.0 50 73 77.9 68.1 29.969 2.77 2.4 538 0.00 0.00 0.00 0.00
06/21/18 8:57:36 AM 123 1.0 5.0 50 73 77.9 68.2 29.967 2.77 2.4 538 0.00 0.00 0.00 0.00
06/21/18 8:58:27 AM 123 0.0 5.0 50 73 77.9 68.3 29.970 2.77 2.4 541 0.00 0.00 0.00 0.00
06/21/18 8:59:21 AM 123 1.0 5.0 50 73 77.9 68.4 29.965 2.77 2.4 545 0.00 0.00 0.00 0.00
06/21/18 9:00:33 AM 123 1.0 5.0 50 74 77.9 68.4 29.969 2.77 2.5 547 0.00 0.00 0.00 0.00
06/21/18 9:01:24 AM 123 1.0 5.0 50 73 78.0 68.4 29.967 2.77 2.5 550 0.00 0.00 0.00 0.00
06/21/18 9:02:30 AM 123 2.0 5.0 50 72 77.9 68.6 29.967 2.77 2.5 550 0.00 0.00 0.00 0.00
06/21/18 9:03:21 AM 120 3.0 5.0 50 72 77.9 68.7 29.965 2.77 2.6 559 0.00 0.00 0.00 0.00
06/21/18 9:04:37 AM 118 3.0 5.0 50 72 77.9 68.9 29.966 2.77 2.6 563 0.00 0.00 0.00 0.00
06/21/18 9:05:28 AM 104 3.0 5.0 50 72 77.9 68.8 29.965 2.77 2.6 564 0.00 0.00 0.00 0.00
06/21/18 9:06:22 AM 109 4.0 6.0 50 71 78.0 68.8 29.967 2.77 2.6 566 0.00 0.00 0.00 0.00
06/21/18 9:07:31 AM 103 3.0 6.0 50 71 78.0 68.8 29.967 2.77 2.6 571 0.00 0.00 0.00 0.00
06/21/18 9:08:22 AM 119 3.0 6.0 50 72 77.9 68.8 29.967 2.77 2.7 575 0.00 0.00 0.00 0.00
06/21/18 9:09:35 AM 121 2.0 6.0 50 72 77.9 69.1 29.967 2.77 2.7 582 0.00 0.00 0.00 0.00
06/21/18 9:10:26 AM 97 2.0 6.0 50 71 78.0 69.2 29.965 2.77 2.7 584 0.00 0.00 0.00 0.00
06/21/18 9:11:20 AM 97 2.0 6.0 50 71 78.0 69.2 29.964 2.77 2.7 585 0.00 0.00 0.00 0.00
06/21/18 9:12:32 AM 97 1.0 6.0 50 71 78.0 69.1 29.963 2.77 2.8 591 0.00 0.00 0.00 0.00
06/21/18 9:13:20 AM 97 1.0 6.0 50 71 78.0 69.1 29.965 2.77 2.8 592 0.00 0.00 0.00 0.00
06/21/18 9:14:32 AM 134 2.0 6.0 50 71 77.9 69.3 29.965 2.77 2.9 598 0.00 0.00 0.00 0.00
06/21/18 9:15:26 AM 207 3.0 6.0 50 72 78.0 69.6 29.963 2.77 2.9 599 0.00 0.00 0.00 0.00
06/21/18 9:16:17 AM 217 1.0 6.0 50 70 78.0 69.6 29.962 2.77 2.9 603 0.00 0.00 0.00 0.00
06/21/18 9:17:33 AM 200 2.0 6.0 50 72 77.9 69.5 29.965 2.77 2.9 603 0.00 0.00 0.00 0.00
06/21/18 9:18:24 AM 194 0.0 6.0 50 72 78.0 69.5 29.964 2.77 3.0 606 0.00 0.00 0.00 0.00
06/21/18 9:19:33 AM 219 0.0 6.0 50 70 78.0 69.6 29.963 2.77 3.0 610 0.00 0.00 0.00 0.00
06/21/18 9:20:24 AM 223 2.0 6.0 50 71 78.0 69.8 29.962 2.77 3.0 613 0.00 0.00 0.00 0.00
06/21/18 9:21:19 AM 185 1.0 6.0 50 71 78.0 70.1 29.962 2.77 3.1 617 0.00 0.00 0.00 0.00
06/21/18 9:22:31 AM 199 2.0 6.0 50 72 78.0 70.4 29.963 2.77 3.1 619 0.00 0.00 0.00 0.00
06/21/18 9:23:25 AM 202 1.0 6.0 50 71 78.0 70.6 29.964 2.77 3.1 619 0.00 0.00 0.00 0.00
06/21/18 9:24:31 AM 165 1.0 6.0 50 69 78.0 70.6 29.964 2.77 3.1 624 0.00 0.00 0.00 0.00
06/21/18 9:25:25 AM 158 3.0 6.0 50 68 78.0 70.8 29.963 2.77 3.2 629 0.00 0.00 0.00 0.00
06/21/18 9:26:19 AM 150 2.0 6.0 50 68 78.0 71.0 29.961 2.77 3.2 631 0.00 0.00 0.00 0.00
06/21/18 9:27:32 AM 156 2.0 6.0 50 67 78.0 71.3 29.961 2.77 3.3 635 0.00 0.00 0.00 0.00
06/21/18 9:28:26 AM 116 2.0 6.0 50 67 78.0 71.2 29.964 2.77 3.3 636 0.00 0.00 0.00 0.00
06/21/18 9:29:17 AM 85 2.0 6.0 50 67 78.0 71.1 29.961 2.77 3.3 640 0.00 0.00 0.00 0.00
06/21/18 9:30:26 AM 80 2.0 6.0 50 67 78.0 71.0 29.963 2.77 3.3 642 0.00 0.00 0.00 0.00
06/21/18 9:31:17 AM 114 2.0 6.0 50 67 78.0 71.1 29.962 2.77 3.4 645 0.00 0.00 0.00 0.00
06/21/18 9:32:30 AM 142 3.0 6.0 50 68 78.0 71.3 29.960 2.77 3.4 649 0.00 0.00 0.00 0.00
06/21/18 9:33:24 AM 140 3.0 6.0 50 66 78.0 71.4 29.962 2.77 3.4 654 0.00 0.00 0.00 0.00
06/21/18 9:34:36 AM 138 3.0 6.0 50 66 78.0 71.4 29.960 2.77 3.5 656 0.00 0.00 0.00 0.00
06/21/18 9:35:21 AM 136 2.0 6.0 50 66 78.0 71.4 29.959 2.77 3.5 657 0.00 0.00 0.00 0.00
06/21/18 9:36:37 AM 136 1.0 6.0 50 66 78.0 71.4 29.961 2.77 3.5 661 0.00 0.00 0.00 0.00
06/21/18 9:37:28 AM 135 2.0 6.0 50 66 78.0 71.5 29.958 2.77 3.5 664 0.00 0.00 0.00 0.00
06/21/18 9:38:22 AM 132 2.0 6.0 50 66 78.0 71.5 29.957 2.77 3.6 666 0.00 0.00 0.00 0.00
06/21/18 9:39:35 AM 132 1.0 6.0 50 66 78.0 71.7 29.959 2.77 3.6 671 0.00 0.00 0.00 0.00
06/21/18 9:40:23 AM 131 2.0 6.0 50 66 78.0 71.7 29.956 2.77 3.6 671 0.00 0.00 0.00 0.00
06/21/18 9:41:17 AM 131 0.0 6.0 50 65 78.0 72.1 29.958 2.77 3.7 675 0.00 0.00 0.00 0.00
06/21/18 9:42:32 AM 131 0.0 6.0 50 65 78.1 72.3 29.957 2.77 3.7 679 0.00 0.00 0.00 0.00
06/21/18 9:43:23 AM 131 3.0 6.0 50 65 78.0 72.5 29.957 2.77 3.8 684 0.00 0.00 0.00 0.00
06/21/18 9:44:17 AM 129 1.0 6.0 50 64 78.1 72.6 29.956 2.77 3.8 686 0.00 0.00 0.00 0.00
06/21/18 9:45:30 AM 129 3.0 6.0 50 64 78.0 72.6 29.958 2.77 3.8 689 0.00 0.00 0.00 0.00
06/21/18 9:46:21 AM 142 3.0 6.0 50 64 78.1 72.7 29.958 2.77 3.9 691 0.00 0.00 0.00 0.00
06/21/18 9:47:30 AM 143 2.0 6.0 50 64 78.0 72.7 29.956 2.77 3.9 691 0.00 0.00 0.00 0.00
06/21/18 9:48:24 AM 144 4.0 6.0 50 64 78.0 72.7 29.955 2.77 3.9 696 0.00 0.00 0.00 0.00
06/21/18 9:49:18 AM 144 3.0 6.0 50 64 78.1 72.7 29.957 2.77 3.9 698 0.00 0.00 0.00 0.00
06/21/18 9:50:31 AM 125 2.0 6.0 50 64 78.0 72.7 29.955 2.77 4.0 701 0.00 0.00 0.00 0.00
06/21/18 9:51:19 AM 136 3.0 6.0 50 63 78.0 72.8 29.957 2.77 4.0 703 0.00 0.00 0.00 0.00
06/21/18 9:52:31 AM 136 2.0 6.0 50 63 78.0 72.9 29.952 2.77 4.0 705 0.00 0.00 0.00 0.00
06/21/18 9:53:25 AM 136 2.0 6.0 50 63 78.0 73.0 29.955 2.77 4.0 707 0.00 0.00 0.00 0.00
06/21/18 9:54:17 AM 136 1.0 6.0 50 63 78.0 73.0 29.955 2.77 4.1 710 0.00 0.00 0.00 0.00
06/21/18 9:55:29 AM 136 1.0 6.0 50 63 78.1 73.0 29.956 2.77 4.1 714 0.00 0.00 0.00 0.00
06/21/18 9:56:23 AM 136 1.0 6.0 50 63 78.1 73.0 29.954 2.77 4.1 717 0.00 0.00 0.00 0.00
06/21/18 9:57:33 AM 136 2.0 6.0 50 63 78.1 73.1 29.953 2.77 4.2 721 0.00 0.00 0.00 0.00
06/21/18 9:58:24 AM 136 2.0 6.0 50 64 78.1 73.4 29.952 2.77 4.3 724 0.00 0.00 0.00 0.00
06/21/18 9:59:18 AM 144 3.0 6.0 50 63 78.1 73.6 29.952 2.77 4.3 726 0.00 0.00 0.00 0.00
06/21/18 10:00:30 AM 147 1.0 6.0 50 62 78.1 73.7 29.952 2.77 4.3 726 0.00 0.00 0.00 0.00
06/21/18 10:01:21 AM 147 2.0 6.0 50 62 78.1 73.7 29.954 2.77 4.3 729 0.00 0.00 0.00 0.00
06/21/18 10:02:31 AM 147 2.0 6.0 51 62 78.0 73.9 29.954 2.77 4.4 731 0.00 0.00 0.00 0.00
06/21/18 10:03:25 AM 147 2.0 6.0 51 62 78.1 74.0 29.955 2.77 4.4 737 0.00 0.00 0.00 0.00
06/21/18 10:04:17 AM 147 3.0 6.0 51 62 78.1 74.3 29.952 2.77 4.4 738 0.00 0.00 0.00 0.00
06/21/18 10:05:32 AM 150 2.0 6.0 51 62 78.1 74.4 29.952 2.77 4.5 742 0.00 0.00 0.00 0.00
06/21/18 10:06:23 AM 150 1.0 6.0 51 60 78.1 74.4 29.953 2.77 4.5 745 0.00 0.00 0.00 0.00
06/21/18 10:07:33 AM 150 3.0 6.0 51 62 78.1 74.5 29.954 2.77 4.5 745 0.00 0.00 0.00 0.00
06/21/18 10:08:24 AM 185 3.0 6.0 51 60 78.1 74.5 29.955 2.77 4.6 747 0.00 0.00 0.00 0.00
06/21/18 10:09:15 AM 186 1.0 6.0 51 61 78.1 74.6 29.953 2.77 4.6 749 0.00 0.00 0.00 0.00
06/21/18 10:10:31 AM 186 1.0 6.0 51 60 78.1 74.6 29.953 2.77 4.7 754 0.00 0.00 0.00 0.00
06/21/18 10:11:22 AM 186 2.0 6.0 51 61 78.1 74.7 29.953 2.77 4.7 756 0.00 0.00 0.00 0.00
06/21/18 10:12:34 AM 186 1.0 6.0 51 60 78.1 74.7 29.953 2.77 4.7 759 0.00 0.00 0.00 0.00
06/21/18 10:13:22 AM 186 1.0 6.0 51 61 78.1 74.7 29.954 2.77 4.8 761 0.00 0.00 0.00 0.00
06/21/18 10:14:35 AM 184 1.0 6.0 51 60 78.1 74.7 29.953 2.77 4.8 765 0.00 0.00 0.00 0.00
06/21/18 10:15:29 AM 184 0.0 6.0 51 60 78.1 74.8 29.953 2.77 4.8 768 0.00 0.00 0.00 0.00
06/21/18 10:16:20 AM 184 0.0 6.0 51 59 78.1 75.0 29.953 2.77 4.9 772 0.00 0.00 0.00 0.00
06/21/18 10:17:32 AM 184 0.0 6.0 51 60 78.1 75.6 29.953 2.77 4.9 773 0.00 0.00 0.00 0.00
06/21/18 10:18:23 AM 187 2.0 6.0 51 60 78.1 76.0 29.954 2.77 4.9 773 0.00 0.00 0.00 0.00
06/21/18 10:19:36 AM 188 0.0 6.0 51 58 78.1 76.2 29.953 2.77 4.9 775 0.00 0.00 0.00 0.00
06/21/18 10:20:27 AM 192 2.0 6.0 51 57 78.2 76.3 29.955 2.77 5.0 777 0.00 0.00 0.00 0.00
06/21/18 10:21:21 AM 193 2.0 6.0 51 58 78.2 76.1 29.954 2.77 5.0 782 0.00 0.00 0.00 0.00
06/21/18 10:22:33 AM 192 0.0 6.0 51 58 78.2 76.1 29.952 2.77 5.1 782 0.00 0.00 0.00 0.00
06/21/18 10:23:25 AM 218 1.0 6.0 51 58 78.1 76.3 29.954 2.77 5.1 786 0.00 0.00 0.00 0.00
06/21/18 10:24:34 AM 218 0.0 6.0 51 58 78.1 76.5 29.954 2.77 5.1 791 0.00 0.00 0.00 0.00
06/21/18 10:25:25 AM 218 0.0 6.0 51 56 78.1 76.7 29.952 2.77 5.2 793 0.00 0.00 0.00 0.00
06/21/18 10:26:19 AM 140 5.0 6.0 51 57 78.1 76.9 29.952 2.77 5.2 795 0.00 0.00 0.00 0.00
06/21/18 10:27:32 AM 123 4.0 6.0 51 55 78.1 77.2 29.951 2.77 5.2 796 0.00 0.00 0.00 0.00
06/21/18 10:28:23 AM 119 1.0 6.0 51 55 78.2 77.1 29.953 2.77 5.2 798 0.00 0.00 0.00 0.00
06/21/18 10:29:32 AM 133 3.0 6.0 51 56 78.2 77.2 29.952 2.77 5.3 800 0.00 0.00 0.00 0.00
06/21/18 10:30:27 AM 136 2.0 6.0 51 56 78.2 77.3 29.952 2.77 5.3 803 0.00 0.00 0.00 0.00
06/21/18 10:31:18 AM 160 2.0 6.0 51 56 78.2 77.4 29.954 2.77 5.3 803 0.00 0.00 0.00 0.00
06/21/18 10:32:33 AM 217 1.0 6.0 51 55 78.2 77.5 29.954 2.77 5.3 805 0.00 0.00 0.00 0.00
06/21/18 10:33:25 AM 135 3.0 6.0 51 55 78.2 77.5 29.954 2.77 5.4 809 0.00 0.00 0.00 0.00
06/21/18 10:34:16 AM 134 4.0 6.0 51 54 78.2 77.4 29.954 2.77 5.4 809 0.00 0.00 0.00 0.00
06/21/18 10:35:25 AM 125 3.0 6.0 51 54 78.2 77.3 29.955 2.77 5.4 810 0.00 0.00 0.00 0.00
06/21/18 10:36:17 AM 125 1.0 6.0 51 55 78.2 77.2 29.955 2.77 5.5 816 0.00 0.00 0.00 0.00
06/21/18 10:37:29 AM 173 3.0 6.0 51 56 78.2 77.2 29.955 2.77 5.5 817 0.00 0.00 0.00 0.00
06/21/18 10:38:24 AM 173 1.0 6.0 51 55 78.2 77.3 29.955 2.77 5.5 821 0.00 0.00 0.00 0.00
06/21/18 10:39:36 AM 173 1.0 6.0 51 56 78.2 77.5 29.957 2.77 5.6 823 0.00 0.00 0.00 0.00
06/21/18 10:40:24 AM 175 1.0 6.0 51 57 78.2 77.7 29.955 2.77 5.6 824 0.00 0.00 0.00 0.00
06/21/18 10:41:37 AM 215 1.0 6.0 51 57 78.2 77.9 29.954 2.77 5.6 823 0.00 0.00 0.00 0.00
06/21/18 10:42:31 AM 214 0.0 6.0 52 55 78.2 78.1 29.954 2.77 5.7 826 0.00 0.00 0.00 0.00
06/21/18 10:43:22 AM 163 2.0 6.0 52 57 78.2 78.4 29.954 2.77 5.7 826 0.00 0.00 0.00 0.00
06/21/18 10:44:35 AM 170 2.0 6.0 52 56 78.2 78.6 29.955 2.77 5.7 830 0.00 0.00 0.00 0.00
06/21/18 10:45:23 AM 156 5.0 6.0 52 54 78.2 78.6 29.954 2.77 5.7 831 0.00 0.00 0.00 0.00
06/21/18 10:46:17 AM 157 3.0 6.0 52 54 78.2 78.5 29.955 2.77 5.7 837 0.00 0.00 0.00 0.00
06/21/18 10:47:30 AM 157 2.0 6.0 52 54 78.2 78.4 29.955 2.77 5.8 837 0.00 0.00 0.00 0.00
06/21/18 10:48:21 AM 156 3.0 6.0 52 54 78.3 78.5 29.954 2.77 5.8 837 0.00 0.00 0.00 0.00
06/21/18 10:49:33 AM 148 3.0 6.0 52 53 78.3 78.6 29.952 2.77 5.8 838 0.00 0.00 0.00 0.00
06/21/18 10:50:27 AM 159 2.0 6.0 52 54 78.3 78.7 29.953 2.77 5.8 842 0.00 0.00 0.00 0.00
06/21/18 10:51:37 AM 150 2.0 6.0 52 53 78.3 78.8 29.954 2.77 5.8 842 0.00 0.00 0.00 0.00
06/21/18 10:52:28 AM 184 2.0 6.0 52 55 78.3 78.9 29.952 2.77 5.9 849 0.00 0.00 0.00 0.00
06/21/18 10:53:19 AM 186 3.0 6.0 52 53 78.2 78.9 29.953 2.77 5.9 851 0.00 0.00 0.00 0.00
06/21/18 10:54:32 AM 188 1.0 6.0 52 53 78.3 78.9 29.954 2.77 6.0 853 0.00 0.00 0.00 0.00
06/21/18 10:55:26 AM 188 0.0 6.0 52 53 78.3 78.9 29.954 2.77 6.0 856 0.00 0.00 0.00 0.00
06/21/18 10:56:35 AM 188 1.0 6.0 52 54 78.3 79.0 29.953 2.77 6.1 854 0.00 0.00 0.00 0.00
06/21/18 10:57:27 AM 180 4.0 6.0 52 55 78.3 79.2 29.953 2.77 6.1 854 0.00 0.00 0.00 0.00
06/21/18 10:58:18 AM 186 3.0 6.0 52 54 78.3 79.3 29.953 2.77 6.1 856 0.00 0.00 0.00 0.00
06/21/18 10:59:33 AM 209 5.0 6.0 52 58 78.3 79.6 29.952 2.77 6.1 854 0.00 0.00 0.00 0.00
06/21/18 11:00:25 AM 215 5.0 6.0 52 56 78.3 79.7 29.951 2.77 6.1 860 0.00 0.00 0.00 0.00
06/21/18 11:01:16 AM 246 4.0 6.0 52 55 78.3 79.7 29.951 2.77 6.2 863 0.00 0.00 0.00 0.00
06/21/18 11:02:26 AM 257 4.0 6.0 52 56 78.3 79.7 29.952 2.77 6.2 865 0.00 0.00 0.00 0.00
06/21/18 11:03:20 AM 259 4.0 6.0 52 52 78.3 79.6 29.953 2.77 6.2 863 0.00 0.00 0.00 0.00
06/21/18 11:04:32 AM 253 2.0 6.0 52 53 78.3 79.6 29.952 2.77 6.2 863 0.00 0.00 0.00 0.00
06/21/18 11:05:24 AM 246 2.0 6.0 52 55 78.3 79.6 29.952 2.77 6.2 863 0.00 0.00 0.00 0.00
06/21/18 11:06:18 AM 248 3.0 6.0 52 56 78.3 79.6 29.950 2.77 6.3 865 0.00 0.00 0.00 0.00
06/21/18 11:07:25 AM 248 2.0 6.0 52 52 78.4 79.7 29.952 2.77 6.3 868 0.00 0.00 0.00 0.00
06/21/18 11:08:19 AM 248 1.0 6.0 52 54 78.4 79.7 29.951 2.77 6.3 868 0.00 0.00 0.00 0.00
06/21/18 11:09:32 AM 248 1.0 6.0 52 53 78.3 79.7 29.951 2.77 6.4 875 0.00 0.00 0.00 0.00
06/21/18 11:10:23 AM 248 1.0 6.0 52 54 78.4 79.8 29.950 2.77 6.4 875 0.00 0.00 0.00 0.00
06/21/18 11:11:36 AM 249 1.0 6.0 53 53 78.4 80.2 29.951 2.77 6.5 872 0.00 0.00 0.00 0.00
06/21/18 11:12:24 AM 247 4.0 6.0 53 54 78.5 80.4 29.949 2.77 6.5 875 0.00 0.00 0.00 0.00
06/21/18 11:13:18 AM 239 4.0 6.0 53 52 78.5 80.6 29.949 2.77 6.5 877 0.00 0.00 0.00 0.00
06/21/18 11:14:30 AM 205 4.0 6.0 53 51 78.4 80.6 29.950 2.77 6.5 879 0.00 0.00 0.00 0.00
06/21/18 11:15:22 AM 200 6.0 6.0 53 52 78.5 80.5 29.949 2.77 6.6 882 0.00 0.00 0.00 0.00
06/21/18 11:16:37 AM 208 5.0 6.0 53 53 78.5 80.4 29.951 2.77 6.6 886 0.00 0.00 0.00 0.00
06/21/18 11:17:28 AM 202 2.0 6.0 53 53 78.5 80.4 29.949 2.77 6.6 889 0.00 0.00 0.00 0.00
06/21/18 11:18:17 AM 202 2.0 6.0 53 52 78.5 80.5 29.951 2.77 6.7 893 0.00 0.00 0.00 0.00
06/21/18 11:19:32 AM 184 4.0 6.0 53 51 78.5 80.5 29.950 2.77 6.7 896 0.00 0.00 0.00 0.00
06/21/18 11:20:24 AM 184 3.0 6.0 53 51 78.5 80.5 29.952 2.77 6.7 896 0.00 0.00 0.00 0.00
06/21/18 11:21:15 AM 183 2.0 6.0 53 51 78.5 80.5 29.952 2.77 6.7 893 0.00 0.00 0.00 0.00
06/21/18 11:22:27 AM 184 2.0 6.0 53 51 78.6 80.7 29.952 2.77 6.7 895 0.00 0.00 0.00 0.00
06/21/18 11:23:19 AM 220 4.0 6.0 53 54 78.6 80.9 29.952 2.77 6.7 896 0.00 0.00 0.00 0.00
06/21/18 11:24:30 AM 223 3.0 6.0 53 51 78.6 81.1 29.952 2.77 6.8 907 0.00 0.00 0.00 0.00
06/21/18 11:25:25 AM 236 2.0 6.0 53 50 78.6 81.2 29.951 2.77 6.8 902 0.00 0.00 0.00 0.00
06/21/18 11:26:37 AM 236 2.0 6.0 53 49 78.6 81.3 29.952 2.77 6.8 902 0.00 0.00 0.00 0.00
06/21/18 11:27:28 AM 270 2.0 6.0 53 52 78.6 81.5 29.951 2.77 6.8 904 0.00 0.00 0.00 0.00
06/21/18 11:28:20 AM 270 1.0 6.0 53 49 78.6 81.6 29.952 2.77 6.8 905 0.00 0.00 0.00 0.00
06/21/18 11:29:29 AM 270 2.0 6.0 53 51 78.6 81.9 29.951 2.77 6.9 905 0.00 0.00 0.00 0.00
06/21/18 11:30:24 AM 271 3.0 6.0 53 52 78.6 82.1 29.951 2.77 7.0 912 0.00 0.00 0.00 0.00
06/21/18 11:31:18 AM 271 3.0 6.0 53 49 78.6 82.3 29.947 2.77 7.0 911 0.00 0.00 0.00 0.00
06/21/18 11:32:31 AM 272 3.0 6.0 53 49 78.6 82.3 29.953 2.77 6.9 911 0.00 0.00 0.00 0.00
06/21/18 11:33:22 AM 272 1.0 6.0 53 50 78.7 82.3 29.950 2.77 7.0 911 0.00 0.00 0.00 0.00
06/21/18 11:34:32 AM 271 3.0 6.0 53 49 78.7 82.4 29.948 2.77 7.0 912 0.00 0.00 0.00 0.00
06/21/18 11:35:23 AM 271 3.0 6.0 53 49 78.7 82.4 29.948 2.77 7.0 912 0.00 0.00 0.00 0.00
06/21/18 11:36:36 AM 242 2.0 6.0 53 48 78.7 82.3 29.950 2.77 7.0 912 0.00 0.00 0.00 0.00
06/21/18 11:37:27 AM 242 2.0 6.0 53 48 78.7 82.3 29.949 2.77 7.0 912 0.00 0.00 0.00 0.00
06/21/18 11:38:18 AM 252 3.0 6.0 54 52 78.7 82.3 29.949 2.77 7.1 911 0.00 0.00 0.00 0.00
06/21/18 11:39:28 AM 252 1.0 6.0 54 50 78.7 82.7 29.949 2.77 7.1 916 0.00 0.00 0.00 0.00
06/21/18 11:40:22 AM 205 5.0 6.0 54 49 78.7 83.0 29.949 2.77 7.1 916 0.00 0.00 0.00 0.00
06/21/18 11:41:32 AM 218 6.0 6.0 54 46 78.7 82.9 29.949 2.77 7.2 919 0.00 0.00 0.00 0.00
06/21/18 11:42:26 AM 202 2.0 6.0 54 47 78.8 82.6 29.949 2.77 7.2 923 0.00 0.00 0.00 0.00
06/21/18 11:43:18 AM 200 4.0 6.0 54 47 78.8 82.4 29.949 2.77 7.2 918 0.00 0.00 0.00 0.00
06/21/18 11:44:30 AM 178 3.0 6.0 54 48 78.8 82.0 29.950 2.77 7.1 912 0.00 0.00 0.00 0.00
06/21/18 11:45:18 AM 171 2.0 6.0 54 47 78.8 82.0 29.949 2.77 7.2 919 0.00 0.00 0.00 0.00
06/21/18 11:46:34 AM 259 3.0 6.0 54 49 78.8 82.3 29.950 2.77 7.2 926 0.00 0.00 0.00 0.00
06/21/18 11:47:25 AM 286 2.0 6.0 54 47 78.8 82.5 29.950 2.77 7.2 928 0.00 0.00 0.00 0.00
06/21/18 11:48:20 AM 208 5.0 6.0 54 52 78.8 82.7 29.949 2.77 7.2 926 0.00 0.00 0.00 0.00
06/21/18 11:49:32 AM 215 6.0 7.0 54 50 78.8 82.8 29.949 2.77 7.3 928 0.00 0.00 0.00 0.00
06/21/18 11:50:21 AM 186 7.0 8.0 54 48 78.9 82.9 29.950 2.77 7.3 928 0.00 0.00 0.00 0.00
06/21/18 11:51:36 AM 176 3.0 8.0 54 46 78.9 82.7 29.950 2.77 7.3 928 0.00 0.00 0.00 0.00
06/21/18 11:52:27 AM 219 4.0 8.0 54 48 78.9 82.5 29.948 2.77 7.3 932 0.00 0.00 0.00 0.00
06/21/18 11:53:19 AM 194 3.0 8.0 54 47 78.9 82.5 29.950 2.77 7.3 935 0.00 0.00 0.00 0.00
06/21/18 11:54:31 AM 175 3.0 8.0 54 47 78.9 82.6 29.951 2.77 7.3 939 0.00 0.00 0.00 0.00
06/21/18 11:55:26 AM 171 5.0 8.0 54 47 78.9 82.8 29.949 2.77 7.3 932 0.00 0.00 0.00 0.00
06/21/18 11:56:35 AM 180 2.0 8.0 54 46 78.9 83.3 29.947 2.77 7.3 932 0.00 0.00 0.00 0.00
06/21/18 11:57:26 AM 257 5.0 8.0 54 49 79.0 83.6 29.950 2.77 7.3 928 0.00 0.00 0.00 0.00
06/21/18 11:58:21 AM 250 4.0 8.0 55 46 79.0 83.7 29.949 2.77 7.3 935 0.00 0.00 0.00 0.00
06/21/18 11:59:33 AM 216 3.0 8.0 55 49 79.0 83.8 29.949 2.77 7.4 935 0.00 0.00 0.00 0.00
06/21/18 12:00:24 PM 240 6.0 8.0 55 47 79.0 83.8 29.948 2.77 7.4 937 0.00 0.00 0.00 0.00
06/21/18 12:01:34 PM 239 4.0 8.0 55 45 79.1 83.7 29.950 2.77 7.4 939 0.00 0.00 0.00 0.00
06/21/18 12:02:26 PM 214 3.0 8.0 55 45 79.0 83.6 29.947 2.77 7.5 944 0.00 0.00 0.00 0.00
06/21/18 12:03:17 PM 225 2.0 8.0 55 47 79.1 83.6 29.948 2.77 7.5 942 0.00 0.00 0.00 0.00
06/21/18 12:04:30 PM 213 2.0 8.0 55 46 79.1 83.5 29.951 2.77 7.4 940 0.00 0.00 0.00 0.00
06/21/18 12:05:24 PM 246 2.0 8.0 55 46 79.1 83.4 29.948 2.77 7.5 942 0.00 0.00 0.00 0.00
06/21/18 12:06:30 PM 237 3.0 8.0 55 49 79.1 83.5 29.949 2.77 7.5 944 0.00 0.00 0.00 0.00
06/21/18 12:07:25 PM 220 3.0 8.0 55 46 79.1 83.6 29.948 2.77 7.5 937 0.00 0.00 0.00 0.00
06/21/18 12:08:35 PM 245 4.0 8.0 55 46 79.1 83.6 29.949 2.77 7.5 940 0.00 0.00 0.00 0.00
06/21/18 12:09:29 PM 247 2.0 8.0 55 46 79.1 83.6 29.947 2.77 7.5 944 0.00 0.00 0.00 0.00
06/21/18 12:10:23 PM 246 2.0 8.0 55 45 79.1 83.7 29.948 2.77 7.5 946 0.00 0.00 0.00 0.00
06/21/18 12:11:35 PM 246 3.0 8.0 55 45 79.1 83.8 29.949 2.77 7.5 942 0.00 0.00 0.00 0.00
06/21/18 12:12:24 PM 218 4.0 8.0 55 47 79.2 83.8 29.949 2.77 7.5 944 0.00 0.00 0.00 0.00
06/21/18 12:13:33 PM 209 2.0 8.0 55 45 79.2 83.8 29.948 2.77 7.6 947 0.00 0.00 0.00 0.00
06/21/18 12:14:28 PM 209 2.0 8.0 55 46 79.2 83.9 29.947 2.77 7.6 947 0.00 0.00 0.00 0.00
06/21/18 12:15:22 PM 209 0.0 8.0 55 45 79.2 83.9 29.948 2.77 7.6 947 0.00 0.00 0.00 0.00
06/21/18 12:16:35 PM 209 2.0 8.0 55 48 79.3 84.2 29.949 2.77 7.6 949 0.00 0.00 0.00 0.00
06/21/18 12:17:23 PM 196 6.0 8.0 56 48 79.2 84.4 29.946 2.77 7.6 951 0.00 0.00 0.00 0.00
06/21/18 12:18:36 PM 175 6.0 8.0 56 45 79.2 84.7 29.947 2.77 7.6 951 0.00 0.00 0.00 0.00
06/21/18 12:19:27 PM 198 6.0 8.0 56 45 79.3 84.9 29.949 2.77 7.6 951 0.00 0.00 0.00 0.00
06/21/18 12:20:22 PM 179 6.0 9.0 56 44 79.3 85.0 29.947 2.77 7.6 951 0.00 0.00 0.00 0.00
06/21/18 12:21:34 PM 210 6.0 10.0 56 43 79.4 84.9 29.945 2.77 7.6 947 0.00 0.00 0.00 0.00
06/21/18 12:22:26 PM 217 6.0 10.0 56 44 79.4 84.7 29.945 2.77 7.6 953 0.00 0.00 0.00 0.00
06/21/18 12:23:32 PM 214 5.0 10.0 56 44 79.4 84.5 29.945 2.77 7.6 954 0.00 0.00 0.00 0.00
06/21/18 12:24:26 PM 189 4.0 10.0 56 47 79.4 84.5 29.945 2.77 7.6 954 0.00 0.00 0.00 0.00
06/21/18 12:25:18 PM 192 1.0 10.0 56 45 79.4 84.5 29.944 2.77 7.6 954 0.00 0.00 0.00 0.00
06/21/18 12:26:30 PM 167 6.0 10.0 56 44 79.4 84.5 29.944 2.77 7.7 958 0.00 0.00 0.00 0.00
06/21/18 12:27:22 PM 134 3.0 10.0 56 43 79.4 84.7 29.942 2.77 7.7 956 0.00 0.00 0.00 0.00
06/21/18 12:28:34 PM 194 5.0 10.0 56 44 79.5 85.0 29.943 2.77 7.7 956 0.00 0.00 0.00 0.00
06/21/18 12:29:26 PM 217 3.0 10.0 56 48 79.5 85.2 29.946 2.77 7.7 958 0.00 0.00 0.00 0.00
06/21/18 12:30:20 PM 234 1.0 10.0 56 44 79.4 85.3 29.943 2.77 7.7 958 0.00 0.00 0.00 0.00
06/21/18 12:31:33 PM 238 4.0 10.0 56 44 79.5 85.4 29.943 2.77 7.6 954 0.00 0.00 0.00 0.00
06/21/18 12:32:24 PM 242 2.0 10.0 56 44 79.5 85.5 29.943 2.77 7.6 953 0.00 0.00 0.00 0.00
06/21/18 12:33:16 PM 236 4.0 10.0 56 45 79.5 85.6 29.941 2.77 7.6 953 0.00 0.00 0.00 0.00
06/21/18 12:34:26 PM 217 7.0 11.0 56 43 79.5 85.6 29.943 2.77 7.7 958 0.00 0.00 0.00 0.00
06/21/18 12:35:20 PM 200 2.0 11.0 57 42 79.6 85.5 29.943 2.77 7.7 960 0.00 0.00 0.00 0.00
06/21/18 12:36:33 PM 199 4.0 11.0 57 44 79.6 85.2 29.942 2.77 7.7 958 0.00 0.00 0.00 0.00
06/21/18 12:37:24 PM 227 5.0 11.0 57 44 79.6 85.2 29.941 2.77 7.7 960 0.00 0.00 0.00 0.00
06/21/18 12:38:19 PM 240 3.0 11.0 57 46 79.6 85.4 29.943 2.77 7.7 956 0.00 0.00 0.00 0.00
06/21/18 12:39:25 PM 236 4.0 11.0 57 45 79.6 85.6 29.941 2.77 7.7 954 0.00 0.00 0.00 0.00
06/21/18 12:40:17 PM 234 5.0 11.0 57 43 79.7 85.8 29.942 2.77 7.7 954 0.00 0.00 0.00 0.00
06/21/18 12:41:33 PM 238 8.0 11.0 57 44 79.7 85.9 29.943 2.77 7.7 956 0.00 0.00 0.00 0.00
06/21/18 12:42:24 PM 218 5.0 11.0 57 42 79.7 85.8 29.942 2.77 7.7 956 0.00 0.00 0.00 0.00
06/21/18 12:43:34 PM 252 5.0 11.0 57 45 79.7 85.6 29.941 2.77 7.7 958 0.00 0.00 0.00 0.00
06/21/18 12:44:22 PM 238 4.0 11.0 57 46 79.7 85.6 29.944 2.77 7.7 956 0.00 0.00 0.00 0.00
06/21/18 12:45:34 PM 236 5.0 11.0 57 46 79.7 85.7 29.943 2.77 7.6 954 0.00 0.00 0.00 0.00
06/21/18 12:46:26 PM 194 6.0 11.0 57 43 79.7 85.7 29.940 2.77 7.7 958 0.00 0.00 0.00 0.00
06/21/18 12:47:17 PM 165 5.0 11.0 57 42 79.8 85.5 29.940 2.77 7.7 954 0.00 0.00 0.00 0.00
06/21/18 12:48:30 PM 167 3.0 11.0 57 43 79.8 85.4 29.940 2.77 7.7 956 0.00 0.00 0.00 0.00
06/21/18 12:49:24 PM 232 6.0 11.0 57 43 79.8 85.6 29.939 2.77 7.7 958 0.00 0.00 0.00 0.00
06/21/18 12:50:31 PM 203 8.0 11.0 57 43 79.9 86.1 29.938 2.77 7.7 960 0.00 0.00 0.00 0.00
06/21/18 12:51:25 PM 191 10.0 11.0 57 42 79.8 86.3 29.938 2.77 7.7 960 0.00 0.00 0.00 0.00
06/21/18 12:52:35 PM 178 7.0 11.0 57 42 79.9 86.1 29.938 2.77 7.7 956 0.00 0.00 0.00 0.00
06/21/18 12:53:29 PM 159 6.0 11.0 57 43 79.9 85.9 29.938 2.77 7.7 956 0.00 0.00 0.00 0.00
06/21/18 12:54:21 PM 185 7.0 11.0 57 42 79.9 85.8 29.939 2.77 7.7 958 0.00 0.00 0.00 0.00
06/21/18 12:55:30 PM 168 5.0 11.0 58 42 79.9 85.7 29.938 2.77 7.7 958 0.00 0.00 0.00 0.00
06/21/18 12:56:22 PM 170 5.0 11.0 58 42 79.9 85.6 29.936 2.77 7.7 962 0.00 0.00 0.00 0.00
06/21/18 12:57:34 PM 232 5.0 11.0 58 42 79.9 85.8 29.937 2.77 7.7 962 0.00 0.00 0.00 0.00
06/21/18 12:58:29 PM 219 8.0 11.0 58 42 80.0 85.8 29.939 2.77 7.7 960 0.00 0.00 0.00 0.00
06/21/18 12:59:20 PM 165 9.0 11.0 58 42 80.0 85.9 29.939 2.77 7.7 962 0.00 0.00 0.00 0.00
06/21/18 1:00:29 PM 206 3.0 11.0 58 42 80.0 85.8 29.938 2.77 7.7 960 0.00 0.00 0.00 0.00
06/21/18 1:01:21 PM 244 5.0 11.0 58 43 80.0 86.0 29.937 2.77 7.6 960 0.00 0.00 0.00 0.00
06/21/18 1:02:34 PM 214 1.0 11.0 58 41 80.1 86.3 29.938 2.77 7.6 954 0.00 0.00 0.00 0.00
06/21/18 1:03:25 PM 227 2.0 11.0 58 44 80.0 86.3 29.937 2.77 7.6 956 0.00 0.00 0.00 0.00
06/21/18 1:04:19 PM 229 7.0 11.0 58 44 80.1 86.5 29.933 2.77 7.7 956 0.00 0.00 0.00 0.00
06/21/18 1:05:32 PM 187 4.0 11.0 58 41 80.1 86.5 29.934 2.77 7.6 958 0.00 0.00 0.00 0.00
06/21/18 1:06:21 PM 193 4.0 11.0 58 44 80.1 86.4 29.934 2.77 7.7 962 0.00 0.00 0.00 0.00
06/21/18 1:07:33 PM 161 4.0 11.0 58 41 80.1 86.3 29.934 2.77 7.7 963 0.00 0.00 0.00 0.00
06/21/18 1:08:28 PM 172 2.0 11.0 58 41 80.1 86.3 29.934 2.77 7.7 963 0.00 0.00 0.00 0.00
06/21/18 1:09:19 PM 172 3.0 11.0 58 43 80.2 86.3 29.934 2.77 7.7 967 0.00 0.00 0.00 0.00
06/21/18 1:10:32 PM 196 3.0 11.0 58 44 80.1 86.6 29.934 2.77 7.7 962 0.00 0.00 0.00 0.00
06/21/18 1:11:21 PM 199 3.0 11.0 58 44 80.1 86.8 29.933 2.77 7.7 956 0.00 0.00 0.00 0.00
06/21/18 1:12:33 PM 157 5.0 11.0 58 41 80.2 87.0 29.932 2.77 7.6 956 0.00 0.00 0.00 0.00
06/21/18 1:13:28 PM 171 6.0 11.0 58 40 80.2 87.2 29.931 2.77 7.6 958 0.00 0.00 0.00 0.00
06/21/18 1:14:16 PM 128 2.0 11.0 59 43 80.2 87.2 29.932 2.77 7.6 956 0.00 0.00 0.00 0.00
06/21/18 1:15:32 PM 130 4.0 11.0 59 39 80.3 87.3 29.932 2.77 7.6 960 0.00 0.00 0.00 0.00
06/21/18 1:16:24 PM 159 4.0 11.0 59 39 80.3 87.3 29.932 2.77 7.6 956 0.00 0.00 0.00 0.00
06/21/18 1:17:33 PM 229 4.0 11.0 59 40 80.3 87.4 29.932 2.77 7.6 956 0.00 0.00 0.00 0.00
06/21/18 1:18:25 PM 205 4.0 11.0 59 40 80.3 87.5 29.931 2.77 7.6 960 0.00 0.00 0.00 0.00
06/21/18 1:19:37 PM 222 8.0 11.0 59 41 80.4 87.4 29.931 2.77 7.6 956 0.00 0.00 0.00 0.00
06/21/18 1:20:32 PM 236 2.0 11.0 59 39 80.3 87.4 29.932 2.77 7.6 953 0.00 0.00 0.00 0.00
06/21/18 1:21:23 PM 225 2.0 11.0 59 40 80.4 87.4 29.932 2.77 7.6 951 0.00 0.00 0.00 0.00
06/21/18 1:22:33 PM 265 1.0 11.0 59 39 80.4 87.5 29.931 2.77 7.6 953 0.00 0.00 0.00 0.00
06/21/18 1:23:24 PM 240 3.0 11.0 59 44 80.4 87.8 29.931 2.77 7.6 953 0.00 0.00 0.00 0.00
06/21/18 1:24:16 PM 232 6.0 11.0 59 41 80.4 88.0 29.934 2.77 7.6 951 0.00 0.00 0.00 0.00
06/21/18 1:25:32 PM 201 6.0 11.0 59 39 80.4 88.0 29.935 2.77 7.6 953 0.00 0.00 0.00 0.00
06/21/18 1:26:23 PM 212 3.0 11.0 59 39 80.5 87.8 29.932 2.77 7.6 951 0.00 0.00 0.00 0.00
06/21/18 1:27:33 PM 198 2.0 11.0 59 38 80.5 87.5 29.932 2.77 7.5 953 0.00 0.00 0.00 0.00
06/21/18 1:28:24 PM 240 3.0 11.0 59 40 80.5 87.5 29.930 2.77 7.6 949 0.00 0.00 0.00 0.00
06/21/18 1:29:18 PM 236 3.0 11.0 59 41 80.5 87.5 29.934 2.77 7.6 951 0.00 0.00 0.00 0.00
06/21/18 1:30:31 PM 227 6.0 11.0 59 40 80.5 87.8 29.930 2.77 7.5 949 0.00 0.00 0.00 0.00
06/21/18 1:31:23 PM 214 7.0 11.0 59 40 80.5 87.9 29.931 2.77 7.5 949 0.00 0.00 0.00 0.00
06/21/18 1:32:36 PM 202 3.0 11.0 59 38 80.6 87.9 29.930 2.77 7.6 953 0.00 0.00 0.00 0.00
06/21/18 1:33:24 PM 200 5.0 11.0 59 38 80.6 87.8 29.932 2.77 7.6 956 0.00 0.00 0.00 0.00
06/21/18 1:34:19 PM 210 6.0 11.0 59 41 80.6 87.9 29.931 2.77 7.6 956 0.00 0.00 0.00 0.00
06/21/18 1:35:31 PM 196 4.0 11.0 60 39 80.6 87.9 29.933 2.77 7.5 949 0.00 0.00 0.00 0.00
06/21/18 1:36:23 PM 186 7.0 11.0 60 38 80.6 87.9 29.930 2.77 7.5 946 0.00 0.00 0.00 0.00
06/21/18 1:37:36 PM 203 0.0 11.0 60 38 80.6 87.8 29.931 2.77 7.4 939 0.00 0.00 0.00 0.00
06/21/18 1:38:24 PM 248 1.0 11.0 60 38 80.6 87.9 29.930 2.77 7.4 939 0.00 0.00 0.00 0.00
06/21/18 1:39:37 PM 252 1.0 11.0 60 39 80.7 88.0 29.930 2.77 7.4 942 0.00 0.00 0.00 0.00
06/21/18 1:40:28 PM 252 2.0 11.0 60 38 80.7 88.2 29.929 2.77 7.4 946 0.00 0.00 0.00 0.00
06/21/18 1:41:23 PM 253 2.0 11.0 60 37 80.7 88.6 29.927 2.77 7.4 946 0.00 0.00 0.00 0.00
06/21/18 1:42:36 PM 252 0.0 11.0 60 37 80.7 89.4 29.926 2.77 7.5 949 0.00 0.00 0.00 0.00
06/21/18 1:43:27 PM 265 3.0 11.0 60 38 80.8 89.6 29.927 2.77 7.4 940 0.00 0.00 0.00 0.00
06/21/18 1:44:37 PM 248 3.0 11.0 60 38 80.7 89.8 29.926 2.77 7.3 935 0.00 0.00 0.00 0.00
06/21/18 1:45:29 PM 219 4.0 11.0 60 36 80.8 89.7 29.925 2.77 7.4 937 0.00 0.00 0.00 0.00
06/21/18 1:46:20 PM 230 6.0 11.0 60 36 80.8 89.5 29.927 2.77 7.4 940 0.00 0.00 0.00 0.00
06/21/18 1:47:33 PM 239 9.0 11.0 60 38 80.9 89.2 29.926 2.77 7.4 942 0.00 0.00 0.00 0.00
06/21/18 1:48:27 PM 214 8.0 11.0 60 36 80.8 89.1 29.926 2.77 7.4 942 0.00 0.00 0.00 0.00
06/21/18 1:49:34 PM 227 5.0 11.0 60 38 80.8 89.0 29.927 2.77 7.4 944 0.00 0.00 0.00 0.00
06/21/18 1:50:28 PM 227 2.0 11.0 60 35 80.9 88.8 29.927 2.77 7.3 939 0.00 0.00 0.00 0.00
06/21/18 1:51:20 PM 227 3.0 11.0 60 35 80.9 88.7 29.926 2.77 7.3 939 0.00 0.00 0.00 0.00
06/21/18 1:52:32 PM 225 6.0 11.0 60 37 80.9 88.9 29.925 2.77 7.3 937 0.00 0.00 0.00 0.00
06/21/18 1:53:23 PM 223 5.0 11.0 60 37 80.9 89.0 29.921 2.77 7.3 935 0.00 0.00 0.00 0.00
06/21/18 1:54:33 PM 225 8.0 11.0 60 39 80.9 89.0 29.923 2.77 7.3 933 0.00 0.00 0.00 0.00
06/21/18 1:55:24 PM 223 9.0 11.0 60 36 80.9 89.0 29.926 2.77 7.3 930 0.00 0.00 0.00 0.00
06/21/18 1:56:19 PM 247 9.0 11.0 60 36 80.9 88.9 29.925 2.77 7.2 930 0.00 0.00 0.00 0.00
06/21/18 1:57:29 PM 254 2.0 11.0 60 36 80.9 88.9 29.922 2.77 7.2 926 0.00 0.00 0.00 0.00
06/21/18 1:58:23 PM 254 0.0 11.0 60 38 81.0 88.9 29.926 2.77 7.2 926 0.00 0.00 0.00 0.00
06/21/18 1:59:36 PM 301 1.0 11.0 60 36 81.0 89.2 29.923 2.77 7.2 926 0.00 0.00 0.00 0.00
06/21/18 2:00:25 PM 192 6.0 11.0 60 36 81.0 89.5 29.925 2.77 7.1 923 0.00 0.00 0.00 0.00
06/21/18 2:01:16 PM 217 8.0 11.0 60 39 81.0 89.9 29.927 2.77 7.1 933 0.00 0.00 0.00 0.00
06/21/18 2:02:32 PM 205 6.0 11.0 60 36 81.0 90.0 29.924 2.77 7.1 932 0.00 0.00 0.00 0.00
06/21/18 2:03:24 PM 236 2.0 11.0 61 36 81.0 89.8 29.924 2.77 7.1 926 0.00 0.00 0.00 0.00
06/21/18 2:04:16 PM 242 1.0 11.0 61 35 81.1 89.9 29.922 2.77 7.1 928 0.00 0.00 0.00 0.00
06/21/18 2:05:25 PM 298 4.0 11.0 61 35 81.1 90.0 29.922 2.77 7.1 930 0.00 0.00 0.00 0.00
06/21/18 2:06:17 PM 281 2.0 11.0 61 39 81.1 90.1 29.924 2.77 7.1 930 0.00 0.00 0.00 0.00
06/21/18 2:07:30 PM 259 2.0 11.0 61 36 81.1 90.2 29.922 2.77 7.1 928 0.00 0.00 0.00 0.00
06/21/18 2:08:22 PM 253 4.0 11.0 61 36 81.1 90.3 29.922 2.77 7.1 925 0.00 0.00 0.00 0.00
06/21/18 2:09:34 PM 275 3.0 11.0 61 36 81.1 90.3 29.925 2.77 7.1 928 0.00 0.00 0.00 0.00
06/21/18 2:10:26 PM 277 3.0 11.0 61 33 81.2 90.2 29.924 2.77 7.1 925 0.00 0.00 0.00 0.00
06/21/18 2:11:36 PM 279 0.0 11.0 61 33 81.1 90.1 29.922 2.77 7.0 919 0.00 0.00 0.00 0.00
06/21/18 2:12:28 PM 279 1.0 11.0 61 34 81.1 90.0 29.923 2.77 7.0 916 0.00 0.00 0.00 0.00
06/21/18 2:13:22 PM 279 1.0 11.0 61 33 81.2 90.1 29.924 2.77 7.0 916 0.00 0.00 0.00 0.00
06/21/18 2:14:32 PM 279 2.0 11.0 61 34 81.2 90.4 29.923 2.77 6.9 918 0.00 0.00 0.00 0.00
06/21/18 2:15:24 PM 219 8.0 11.0 61 35 81.2 90.7 29.924 2.77 6.9 918 0.00 0.00 0.00 0.00
06/21/18 2:16:33 PM 180 6.0 11.0 61 33 81.2 90.7 29.922 2.77 6.9 916 0.00 0.00 0.00 0.00
06/21/18 2:17:25 PM 214 7.0 11.0 61 33 81.2 90.5 29.924 2.77 6.9 918 0.00 0.00 0.00 0.00
06/21/18 2:18:17 PM 257 7.0 11.0 61 36 81.2 90.5 29.920 2.77 6.9 914 0.00 0.00 0.00 0.00
06/21/18 2:19:29 PM 219 9.0 11.0 61 36 81.2 90.5 29.920 2.77 6.8 912 0.00 0.00 0.00 0.00
06/21/18 2:20:24 PM 246 7.0 11.0 61 34 81.3 90.7 29.922 2.77 6.8 907 0.00 0.00 0.00 0.00
06/21/18 2:21:16 PM 232 7.0 11.0 61 35 81.3 90.7 29.922 2.77 6.7 905 0.00 0.00 0.00 0.00
06/21/18 2:22:25 PM 251 4.0 11.0 61 36 81.3 90.5 29.919 2.77 6.7 904 0.00 0.00 0.00 0.00
06/21/18 2:23:17 PM 252 2.0 11.0 61 34 81.3 90.4 29.922 2.77 6.7 898 0.00 0.00 0.00 0.00
06/21/18 2:24:30 PM 216 8.0 11.0 61 34 81.4 90.2 29.921 2.77 6.7 902 0.00 0.00 0.00 0.00
06/21/18 2:25:25 PM 224 5.0 12.0 61 35 81.4 90.2 29.919 2.77 6.7 904 0.00 0.00 0.00 0.00
06/21/18 2:26:19 PM 240 4.0 12.0 61 34 81.4 90.1 29.919 2.77 6.7 904 0.00 0.00 0.00 0.00
06/21/18 2:27:26 PM 180 7.0 12.0 61 34 81.4 90.0 29.918 2.77 6.7 902 0.00 0.00 0.00 0.00
06/21/18 2:28:17 PM 185 11.0 13.0 61 36 81.4 90.0 29.920 2.77 6.7 902 0.00 0.00 0.00 0.00
06/21/18 2:29:30 PM 193 10.0 13.0 61 34 81.4 89.9 29.918 2.77 6.6 900 0.00 0.00 0.00 0.00
06/21/18 2:30:22 PM 216 10.0 13.0 61 33 81.4 89.9 29.918 2.77 6.6 902 0.00 0.00 0.00 0.00
06/21/18 2:31:35 PM 167 8.0 13.0 61 33 81.4 89.9 29.918 2.77 6.5 898 0.00 0.00 0.00 0.00
06/21/18 2:32:21 PM 234 6.0 13.0 61 33 81.4 90.0 29.918 2.77 6.5 893 0.00 0.00 0.00 0.00
06/21/18 2:33:37 PM 254 5.0 13.0 61 37 81.5 90.2 29.915 2.77 6.5 891 0.00 0.00 0.00 0.00
06/21/18 2:34:28 PM 232 6.0 13.0 61 37 81.5 90.4 29.917 2.77 6.4 889 0.00 0.00 0.00 0.00
06/21/18 2:35:20 PM 243 5.0 13.0 61 35 81.5 90.4 29.917 2.77 6.4 888 0.00 0.00 0.00 0.00

University Police wind advisory reference

For campus closure information please call the campus Emergency Hotline at (909) 537-5999

© All rights reserved. Unauthorized duplication or distribution is prohibited

Never base important decisions on this or any weather information obtained from the Internet

California State University, San Bernardino
5500 University Parkway, San Bernardino, CA. 92407
Phone: (909) 537-5108, Email: Weather Webmaster
Last Updated: